Wetterdaten: Mittwoch, 14.12.2016
Datum Zeit Temp. A. Feuchte A. Luftdruck Regen Wind Richtung Richtung Sonnenschein ET UV Solar Taupunkt Windchill Windben Empfang
14.12.2016 00:00 1,3 C 94 % 1026,0 hPa 0,0 l/m 1,8 km/h (1 Bft) O-SO 110 0 min 0,000 mm 0,0 UV-I 0 W/m 0,4 C 1,3 C 3,2 km/h (1 Bft) 95,35 %
14.12.2016 00:02 1,3 C 94 % 1026,0 hPa 0,0 l/m 1,9 km/h (1 Bft) O-SO 110 0 min 0,000 mm 0,0 UV-I 0 W/m 0,4 C 1,3 C 3,2 km/h (1 Bft) 95,45 %
14.12.2016 00:04 1,3 C 94 % 1025,9 hPa 0,0 l/m 3,5 km/h (1 Bft) O-SO 110 0 min 0,000 mm 0,0 UV-I 0 W/m 0,4 C 1,3 C 4,8 km/h (1 Bft) 98,00 %
14.12.2016 00:06 1,3 C 94 % 1025,9 hPa 0,0 l/m 4,3 km/h (1 Bft) O-SO 110 0 min 0,000 mm 0,0 UV-I 0 W/m 0,4 C 1,3 C 4,8 km/h (1 Bft) 97,37 %
14.12.2016 00:08 1,3 C 94 % 1025,9 hPa 0,0 l/m 3,3 km/h (1 Bft) O-SO 110 0 min 0,000 mm 0,0 UV-I 0 W/m 0,4 C 1,3 C 4,8 km/h (1 Bft) 97,87 %
14.12.2016 00:10 1,3 C 94 % 1025,9 hPa 0,0 l/m 3,4 km/h (1 Bft) O-SO 110 0 min 0,000 mm 0,0 UV-I 0 W/m 0,4 C 1,3 C 4,8 km/h (1 Bft) 97,87 %
14.12.2016 00:12 1,3 C 94 % 1026,0 hPa 0,0 l/m 1,0 km/h (0 Bft) O-SO 110 0 min 0,000 mm 0,0 UV-I 0 W/m 0,4 C 1,3 C 3,2 km/h (1 Bft) 98,00 %
14.12.2016 00:14 1,3 C 94 % 1026,1 hPa 0,0 l/m 0,0 km/h (0 Bft) O-SO 110 0 min 0,000 mm 0,0 UV-I 0 W/m 0,4 C 1,3 C 0,0 km/h (0 Bft) 96,00 %
14.12.2016 00:16 1,3 C 95 % 1026,1 hPa 0,0 l/m 0,0 km/h (0 Bft) O-SO 110 0 min 0,000 mm 0,0 UV-I 0 W/m 0,6 C 1,3 C 0,0 km/h (0 Bft) 95,12 %
14.12.2016 00:18 1,4 C 95 % 1026,2 hPa 0,0 l/m 0,0 km/h (0 Bft) O-SO 110 0 min 0,000 mm 0,0 UV-I 0 W/m 0,7 C 1,4 C 0,0 km/h (0 Bft) 98,00 %
14.12.2016 00:20 1,3 C 94 % 1026,2 hPa 0,0 l/m 0,2 km/h (0 Bft) O-SO 110 0 min 0,000 mm 0,0 UV-I 0 W/m 0,4 C 1,3 C 1,6 km/h (1 Bft) 98,04 %
14.12.2016 00:22 1,4 C 95 % 1026,1 hPa 0,0 l/m 0,0 km/h (0 Bft) O-SO 110 0 min 0,000 mm 0,0 UV-I 0 W/m 0,7 C 1,4 C 0,0 km/h (0 Bft) 97,87 %
14.12.2016 00:24 1,4 C 95 % 1026,1 hPa 0,0 l/m 0,6 km/h (0 Bft) O-SO 110 0 min 0,000 mm 0,0 UV-I 0 W/m 0,7 C 1,4 C 1,6 km/h (1 Bft) 93,62 %
14.12.2016 00:26 1,4 C 95 % 1026,1 hPa 0,0 l/m 0,0 km/h (0 Bft) O-SO 110 0 min 0,000 mm 0,0 UV-I 0 W/m 0,7 C 1,4 C 1,6 km/h (1 Bft) 100,00 %
14.12.2016 00:28 1,4 C 95 % 1026,0 hPa 0,0 l/m 0,0 km/h (0 Bft) O-SO 110 0 min 0,000 mm 0,0 UV-I 0 W/m 0,7 C 1,4 C 0,0 km/h (0 Bft) 100,00 %
14.12.2016 00:30 1,4 C 95 % 1025,9 hPa 0,0 l/m 0,1 km/h (0 Bft) O-SO 110 0 min 0,000 mm 0,0 UV-I 0 W/m 0,7 C 1,4 C 1,6 km/h (1 Bft) 100,00 %
14.12.2016 00:32 1,4 C 95 % 1025,9 hPa 0,0 l/m 0,8 km/h (0 Bft) O-SO 110 0 min 0,000 mm 0,0 UV-I 0 W/m 0,7 C 1,4 C 1,6 km/h (1 Bft) 100,00 %
14.12.2016 00:34 1,4 C 95 % 1025,9 hPa 0,0 l/m 1,9 km/h (1 Bft) O-SO 110 0 min 0,000 mm 0,0 UV-I 0 W/m 0,7 C 1,4 C 3,2 km/h (1 Bft) 98,18 %
14.12.2016 00:36 1,4 C 95 % 1025,9 hPa 0,0 l/m 2,5 km/h (1 Bft) O-SO 110 0 min 0,000 mm 0,0 UV-I 0 W/m 0,7 C 1,4 C 3,2 km/h (1 Bft) 100,00 %
14.12.2016 00:38 1,4 C 95 % 1025,9 hPa 0,0 l/m 3,0 km/h (1 Bft) O-SO 110 0 min 0,000 mm 0,0 UV-I 0 W/m 0,7 C 1,4 C 4,8 km/h (1 Bft) 96,23 %
14.12.2016 00:40 1,3 C 95 % 1025,9 hPa 0,0 l/m 0,0 km/h (0 Bft) O-SO 110 0 min 0,000 mm 0,0 UV-I 0 W/m 0,6 C 1,3 C 0,0 km/h (0 Bft) 100,00 %
14.12.2016 00:42 1,3 C 95 % 1025,9 hPa 0,0 l/m 0,3 km/h (0 Bft) O-SO 110 0 min 0,000 mm 0,0 UV-I 0 W/m 0,6 C 1,3 C 1,6 km/h (1 Bft) 100,00 %
14.12.2016 00:44 1,3 C 95 % 1025,9 hPa 0,0 l/m 0,0 km/h (0 Bft) O-SO 110 0 min 0,000 mm 0,0 UV-I 0 W/m 0,6 C 1,3 C 0,0 km/h (0 Bft) 97,87 %
14.12.2016 00:46 1,3 C 95 % 1025,9 hPa 0,0 l/m 0,0 km/h (0 Bft) O-SO 110 0 min 0,000 mm 0,0 UV-I 0 W/m 0,6 C 1,3 C 0,0 km/h (0 Bft) 100,00 %
14.12.2016 00:48 1,4 C 95 % 1025,9 hPa 0,0 l/m 0,9 km/h (0 Bft) O-SO 110 0 min 0,000 mm 0,0 UV-I 0 W/m 0,7 C 1,4 C 1,6 km/h (1 Bft) 100,00 %
14.12.2016 00:50 1,3 C 95 % 1025,9 hPa 0,0 l/m 0,3 km/h (0 Bft) O-SO 110 0 min 0,000 mm 0,0 UV-I 0 W/m 0,6 C 1,3 C 1,6 km/h (1 Bft) 100,00 %
14.12.2016 00:52 1,4 C 95 % 1025,9 hPa 0,0 l/m 0,0 km/h (0 Bft) O-SO 110 0 min 0,000 mm 0,0 UV-I 0 W/m 0,7 C 1,4 C 0,0 km/h (0 Bft) 100,00 %
14.12.2016 00:54 1,3 C 95 % 1025,9 hPa 0,0 l/m 0,0 km/h (0 Bft) O-SO 110 0 min 0,000 mm 0,0 UV-I 0 W/m 0,6 C 1,3 C 0,0 km/h (0 Bft) 97,87 %
14.12.2016 00:56 1,3 C 95 % 1025,9 hPa 0,0 l/m 0,0 km/h (0 Bft) O-SO 110 0 min 0,000 mm 0,0 UV-I 0 W/m 0,6 C 1,3 C 0,0 km/h (0 Bft) 100,00 %
14.12.2016 00:58 1,3 C 95 % 1025,8 hPa 0,0 l/m 0,0 km/h (0 Bft) O-SO 110 0 min 0,000 mm 0,0 UV-I 0 W/m 0,6 C 1,3 C 0,0 km/h (0 Bft) 100,00 %
14.12.2016 01:00 1,3 C 95 % 1025,8 hPa 0,0 l/m 0,0 km/h (0 Bft) O-SO 110 0 min 0,000 mm 0,0 UV-I 0 W/m 0,6 C 1,3 C 0,0 km/h (0 Bft) 100,00 %
14.12.2016 01:02 1,3 C 95 % 1025,8 hPa 0,0 l/m 0,0 km/h (0 Bft) O-SO 110 0 min 0,000 mm 0,0 UV-I 0 W/m 0,6 C 1,3 C 0,0 km/h (0 Bft) 100,00 %
14.12.2016 01:04 1,3 C 95 % 1025,8 hPa 0,0 l/m 0,0 km/h (0 Bft) O-SO 110 0 min 0,000 mm 0,0 UV-I 0 W/m 0,6 C 1,3 C 0,0 km/h (0 Bft) 97,87 %
14.12.2016 01:06 1,3 C 95 % 1025,8 hPa 0,0 l/m 0,0 km/h (0 Bft) O-SO 110 0 min 0,000 mm 0,0 UV-I 0 W/m 0,6 C 1,3 C 0,0 km/h (0 Bft) 96,00 %
14.12.2016 01:08 1,3 C 95 % 1025,8 hPa 0,0 l/m 0,0 km/h (0 Bft) O-SO 110 0 min 0,000 mm 0,0 UV-I 0 W/m 0,6 C 1,3 C 0,0 km/h (0 Bft) 96,00 %
14.12.2016 01:10 1,3 C 95 % 1025,7 hPa 0,0 l/m 0,0 km/h (0 Bft) O-SO 110 0 min 0,000 mm 0,0 UV-I 0 W/m 0,6 C 1,3 C 0,0 km/h (0 Bft) 100,00 %
14.12.2016 01:12 1,3 C 95 % 1025,8 hPa 0,0 l/m 0,0 km/h (0 Bft) O-SO 110 0 min 0,000 mm 0,0 UV-I 0 W/m 0,6 C 1,3 C 0,0 km/h (0 Bft) 100,00 %
14.12.2016 01:14 1,2 C 95 % 1025,9 hPa 0,0 l/m 0,0 km/h (0 Bft) O-SO 110 0 min 0,000 mm 0,0 UV-I 0 W/m 0,5 C 1,2 C 0,0 km/h (0 Bft) 100,00 %
14.12.2016 01:16 1,2 C 95 % 1025,9 hPa 0,0 l/m 0,0 km/h (0 Bft) O-SO 110 0 min 0,000 mm 0,0 UV-I 0 W/m 0,5 C 1,2 C 0,0 km/h (0 Bft) 100,00 %
14.12.2016 01:18 1,2 C 95 % 1025,9 hPa 0,0 l/m 0,3 km/h (0 Bft) O-SO 110 0 min 0,000 mm 0,0 UV-I 0 W/m 0,5 C 1,2 C 1,6 km/h (1 Bft) 100,00 %
14.12.2016 01:20 1,2 C 95 % 1025,8 hPa 0,0 l/m 0,0 km/h (0 Bft) O-SO 110 0 min 0,000 mm 0,0 UV-I 0 W/m 0,5 C 1,2 C 0,0 km/h (0 Bft) 100,00 %
14.12.2016 01:22 1,2 C 95 % 1025,8 hPa 0,0 l/m 0,0 km/h (0 Bft) O-SO 110 0 min 0,000 mm 0,0 UV-I 0 W/m 0,5 C 1,2 C 0,0 km/h (0 Bft) 100,00 %
14.12.2016 01:24 1,2 C 95 % 1025,8 hPa 0,0 l/m 0,0 km/h (0 Bft) O-SO 110 0 min 0,000 mm 0,0 UV-I 0 W/m 0,5 C 1,2 C 0,0 km/h (0 Bft) 97,87 %
14.12.2016 01:26 1,2 C 95 % 1025,8 hPa 0,0 l/m 0,0 km/h (0 Bft) O-SO 110 0 min 0,000 mm 0,0 UV-I 0 W/m 0,5 C 1,2 C 0,0 km/h (0 Bft) 98,00 %
14.12.2016 01:28 1,2 C 95 % 1025,7 hPa 0,0 l/m 0,0 km/h (0 Bft) O-SO 110 0 min 0,000 mm 0,0 UV-I 0 W/m 0,5 C 1,2 C 0,0 km/h (0 Bft) 100,00 %
14.12.2016 01:30 1,2 C 95 % 1025,7 hPa 0,0 l/m 1,2 km/h (1 Bft) O-SO 111 0 min 0,000 mm 0,0 UV-I 0 W/m 0,5 C 1,2 C 3,2 km/h (1 Bft) 100,00 %
14.12.2016 01:32 1,2 C 95 % 1025,7 hPa 0,0 l/m 1,1 km/h (1 Bft) O-SO 117 0 min 0,000 mm 0,0 UV-I 0 W/m 0,5 C 1,2 C 3,2 km/h (1 Bft) 96,23 %
14.12.2016 01:34 1,2 C 96 % 1025,7 hPa 0,0 l/m 0,3 km/h (0 Bft) O-SO 117 0 min 0,000 mm 0,0 UV-I 0 W/m 0,6 C 1,2 C 1,6 km/h (1 Bft) 100,00 %
14.12.2016 01:36 1,2 C 96 % 1025,7 hPa 0,0 l/m 0,1 km/h (0 Bft) O-SO 117 0 min 0,000 mm 0,0 UV-I 0 W/m 0,6 C 1,2 C 1,6 km/h (1 Bft) 100,00 %
14.12.2016 01:38 1,2 C 96 % 1025,7 hPa 0,0 l/m 0,4 km/h (0 Bft) O-SO 117 0 min 0,000 mm 0,0 UV-I 0 W/m 0,6 C 1,2 C 1,6 km/h (1 Bft) 94,34 %
14.12.2016 01:40 1,2 C 95 % 1025,7 hPa 0,0 l/m 0,7 km/h (0 Bft) O-SO 117 0 min 0,000 mm 0,0 UV-I 0 W/m 0,5 C 1,2 C 1,6 km/h (1 Bft) 100,00 %
14.12.2016 01:42 1,2 C 96 % 1025,7 hPa 0,0 l/m 0,5 km/h (0 Bft) O-SO 117 0 min 0,000 mm 0,0 UV-I 0 W/m 0,6 C 1,2 C 1,6 km/h (1 Bft) 100,00 %
14.12.2016 01:44 1,3 C 96 % 1025,7 hPa 0,0 l/m 0,2 km/h (0 Bft) O-SO 117 0 min 0,000 mm 0,0 UV-I 0 W/m 0,7 C 1,3 C 1,6 km/h (1 Bft) 100,00 %
14.12.2016 01:46 1,3 C 96 % 1025,8 hPa 0,0 l/m 0,2 km/h (0 Bft) O-SO 117 0 min 0,000 mm 0,0 UV-I 0 W/m 0,7 C 1,3 C 1,6 km/h (1 Bft) 100,00 %
14.12.2016 01:48 1,3 C 96 % 1025,8 hPa 0,0 l/m 0,3 km/h (0 Bft) O-SO 117 0 min 0,000 mm 0,0 UV-I 0 W/m 0,7 C 1,3 C 1,6 km/h (1 Bft) 100,00 %
14.12.2016 01:50 1,3 C 96 % 1025,8 hPa 0,0 l/m 0,5 km/h (0 Bft) O-SO 117 0 min 0,000 mm 0,0 UV-I 0 W/m 0,7 C 1,3 C 1,6 km/h (1 Bft) 100,00 %
14.12.2016 01:52 1,2 C 96 % 1025,8 hPa 0,0 l/m 0,5 km/h (0 Bft) O-SO 117 0 min 0,000 mm 0,0 UV-I 0 W/m 0,6 C 1,2 C 3,2 km/h (1 Bft) 100,00 %
14.12.2016 01:54 1,2 C 96 % 1025,8 hPa 0,0 l/m 1,8 km/h (1 Bft) O-SO 117 0 min 0,000 mm 0,0 UV-I 0 W/m 0,6 C 1,2 C 3,2 km/h (1 Bft) 96,77 %
14.12.2016 01:56 1,2 C 96 % 1025,8 hPa 0,0 l/m 1,8 km/h (1 Bft) O-SO 117 0 min 0,000 mm 0,0 UV-I 0 W/m 0,6 C 1,2 C 3,2 km/h (1 Bft) 97,87 %
14.12.2016 01:58 1,3 C 96 % 1025,8 hPa 0,0 l/m 0,9 km/h (0 Bft) O-SO 117 0 min 0,000 mm 0,0 UV-I 0 W/m 0,7 C 1,3 C 3,2 km/h (1 Bft) 94,00 %
14.12.2016 02:00 1,3 C 96 % 1025,8 hPa 0,0 l/m 0,2 km/h (0 Bft) O-SO 117 0 min 0,000 mm 0,0 UV-I 0 W/m 0,7 C 1,3 C 1,6 km/h (1 Bft) 97,56 %
14.12.2016 02:02 1,2 C 96 % 1025,7 hPa 0,0 l/m 0,1 km/h (0 Bft) O-SO 117 0 min 0,000 mm 0,0 UV-I 0 W/m 0,6 C 1,2 C 1,6 km/h (1 Bft) 96,00 %
14.12.2016 02:04 1,2 C 96 % 1025,8 hPa 0,0 l/m 1,4 km/h (1 Bft) O-SO 117 0 min 0,000 mm 0,0 UV-I 0 W/m 0,6 C 1,2 C 3,2 km/h (1 Bft) 98,00 %
14.12.2016 02:06 1,3 C 96 % 1025,7 hPa 0,0 l/m 1,6 km/h (1 Bft) O-SO 117 0 min 0,000 mm 0,0 UV-I 0 W/m 0,7 C 1,3 C 3,2 km/h (1 Bft) 97,37 %
14.12.2016 02:08 1,3 C 96 % 1025,8 hPa 0,0 l/m 2,0 km/h (1 Bft) O-SO 117 0 min 0,000 mm 0,0 UV-I 0 W/m 0,7 C 1,3 C 3,2 km/h (1 Bft) 98,11 %
14.12.2016 02:10 1,2 C 96 % 1025,9 hPa 0,0 l/m 1,3 km/h (1 Bft) O-SO 119 0 min 0,000 mm 0,0 UV-I 0 W/m 0,6 C 1,2 C 3,2 km/h (1 Bft) 98,00 %
14.12.2016 02:12 1,3 C 96 % 1025,9 hPa 0,0 l/m 1,3 km/h (1 Bft) O-SO 119 0 min 0,000 mm 0,0 UV-I 0 W/m 0,7 C 1,3 C 3,2 km/h (1 Bft) 97,56 %
14.12.2016 02:14 1,3 C 96 % 1025,9 hPa 0,0 l/m 0,4 km/h (0 Bft) O-SO 119 0 min 0,000 mm 0,0 UV-I 0 W/m 0,7 C 1,3 C 1,6 km/h (1 Bft) 97,37 %
14.12.2016 02:16 1,3 C 96 % 1025,9 hPa 0,0 l/m 0,8 km/h (0 Bft) O-SO 119 0 min 0,000 mm 0,0 UV-I 0 W/m 0,7 C 1,3 C 3,2 km/h (1 Bft) 96,61 %
14.12.2016 02:18 1,3 C 96 % 1025,9 hPa 0,0 l/m 1,9 km/h (1 Bft) O-SO 119 0 min 0,000 mm 0,0 UV-I 0 W/m 0,7 C 1,3 C 3,2 km/h (1 Bft) 100,00 %
14.12.2016 02:20 1,3 C 96 % 1025,9 hPa 0,0 l/m 3,0 km/h (1 Bft) SO 128 0 min 0,000 mm 0,0 UV-I 0 W/m 0,7 C 1,3 C 4,8 km/h (1 Bft) 96,00 %
14.12.2016 02:22 1,3 C 96 % 1025,8 hPa 0,0 l/m 1,1 km/h (1 Bft) SO 128 0 min 0,000 mm 0,0 UV-I 0 W/m 0,7 C 1,3 C 3,2 km/h (1 Bft) 97,87 %
14.12.2016 02:24 1,3 C 96 % 1025,8 hPa 0,0 l/m 1,9 km/h (1 Bft) SO 128 0 min 0,000 mm 0,0 UV-I 0 W/m 0,7 C 1,3 C 3,2 km/h (1 Bft) 97,87 %
14.12.2016 02:26 1,3 C 96 % 1025,8 hPa 0,0 l/m 0,2 km/h (0 Bft) SO 128 0 min 0,000 mm 0,0 UV-I 0 W/m 0,7 C 1,3 C 1,6 km/h (1 Bft) 97,87 %
14.12.2016 02:28 1,3 C 96 % 1025,8 hPa 0,0 l/m 0,3 km/h (0 Bft) SO 128 0 min 0,000 mm 0,0 UV-I 0 W/m 0,7 C 1,3 C 1,6 km/h (1 Bft) 100,00 %
14.12.2016 02:30 1,3 C 96 % 1025,8 hPa 0,0 l/m 1,1 km/h (1 Bft) SO 128 0 min 0,000 mm 0,0 UV-I 0 W/m 0,7 C 1,3 C 3,2 km/h (1 Bft) 93,33 %
14.12.2016 02:32 1,3 C 96 % 1025,8 hPa 0,0 l/m 0,3 km/h (0 Bft) SO 128 0 min 0,000 mm 0,0 UV-I 0 W/m 0,7 C 1,3 C 1,6 km/h (1 Bft) 100,00 %
14.12.2016 02:34 1,3 C 96 % 1025,8 hPa 0,0 l/m 0,7 km/h (0 Bft) SO 128 0 min 0,000 mm 0,0 UV-I 0 W/m 0,7 C 1,3 C 3,2 km/h (1 Bft) 97,87 %
14.12.2016 02:36 1,3 C 96 % 1025,8 hPa 0,0 l/m 0,4 km/h (0 Bft) SO 128 0 min 0,000 mm 0,0 UV-I 0 W/m 0,7 C 1,3 C 1,6 km/h (1 Bft) 100,00 %
14.12.2016 02:38 1,3 C 96 % 1025,8 hPa 0,2 l/m 0,3 km/h (0 Bft) SO 128 0 min 0,000 mm 0,0 UV-I 0 W/m 0,7 C 1,3 C 3,2 km/h (1 Bft) 100,00 %
14.12.2016 02:40 1,3 C 96 % 1025,7 hPa 0,0 l/m 1,9 km/h (1 Bft) SO 142 0 min 0,000 mm 0,0 UV-I 0 W/m 0,7 C 1,3 C 3,2 km/h (1 Bft) 96,00 %
14.12.2016 02:42 1,3 C 96 % 1025,7 hPa 0,0 l/m 2,0 km/h (1 Bft) S-SO 152 0 min 0,000 mm 0,0 UV-I 0 W/m 0,7 C 1,3 C 3,2 km/h (1 Bft) 97,56 %
14.12.2016 02:44 1,3 C 96 % 1025,6 hPa 0,0 l/m 2,5 km/h (1 Bft) S-SO 161 0 min 0,000 mm 0,0 UV-I 0 W/m 0,7 C 1,3 C 6,4 km/h (2 Bft) 100,00 %
14.12.2016 02:46 1,3 C 97 % 1025,6 hPa 0,0 l/m 2,1 km/h (1 Bft) S-SO 161 0 min 0,000 mm 0,0 UV-I 0 W/m 0,9 C 1,3 C 3,2 km/h (1 Bft) 100,00 %
14.12.2016 02:48 1,2 C 97 % 1025,5 hPa 0,0 l/m 1,2 km/h (1 Bft) S-SO 155 0 min 0,000 mm 0,0 UV-I 0 W/m 0,8 C 1,2 C 3,2 km/h (1 Bft) 98,11 %
14.12.2016 02:50 1,2 C 97 % 1025,5 hPa 0,0 l/m 1,0 km/h (0 Bft) S-SO 155 0 min 0,000 mm 0,0 UV-I 0 W/m 0,8 C 1,2 C 3,2 km/h (1 Bft) 100,00 %
14.12.2016 02:52 1,2 C 97 % 1025,5 hPa 0,0 l/m 0,8 km/h (0 Bft) S-SO 155 0 min 0,000 mm 0,0 UV-I 0 W/m 0,8 C 1,2 C 3,2 km/h (1 Bft) 100,00 %
14.12.2016 02:54 1,2 C 97 % 1025,6 hPa 0,0 l/m 0,0 km/h (0 Bft) S-SO 155 0 min 0,000 mm 0,0 UV-I 0 W/m 0,8 C 1,2 C 0,0 km/h (0 Bft) 100,00 %
14.12.2016 02:56 1,3 C 97 % 1025,6 hPa 0,0 l/m 1,0 km/h (0 Bft) S-SO 163 0 min 0,000 mm 0,0 UV-I 0 W/m 0,9 C 1,3 C 3,2 km/h (1 Bft) 100,00 %
14.12.2016 02:58 1,2 C 97 % 1025,7 hPa 0,0 l/m 2,7 km/h (1 Bft) S-SW 194 0 min 0,000 mm 0,0 UV-I 0 W/m 0,8 C 1,2 C 4,8 km/h (1 Bft) 100,00 %
14.12.2016 03:00 1,3 C 97 % 1025,6 hPa 0,0 l/m 3,1 km/h (1 Bft) S-SW 198 0 min 0,000 mm 0,0 UV-I 0 W/m 0,9 C 1,3 C 4,8 km/h (1 Bft) 100,00 %
14.12.2016 03:02 1,3 C 97 % 1025,6 hPa 0,0 l/m 3,2 km/h (1 Bft) S-SW 198 0 min 0,000 mm 0,0 UV-I 0 W/m 0,9 C 1,3 C 4,8 km/h (1 Bft) 96,23 %
14.12.2016 03:04 1,3 C 97 % 1025,5 hPa 0,0 l/m 1,2 km/h (1 Bft) S-SW 198 0 min 0,000 mm 0,0 UV-I 0 W/m 0,9 C 1,3 C 3,2 km/h (1 Bft) 100,00 %
14.12.2016 03:06 1,3 C 97 % 1025,4 hPa 0,0 l/m 0,8 km/h (0 Bft) S-SW 198 0 min 0,000 mm 0,0 UV-I 0 W/m 0,9 C 1,3 C 3,2 km/h (1 Bft) 100,00 %
14.12.2016 03:08 1,3 C 97 % 1025,3 hPa 0,0 l/m 2,8 km/h (1 Bft) S 180 0 min 0,000 mm 0,0 UV-I 0 W/m 0,9 C 1,3 C 4,8 km/h (1 Bft) 100,00 %
14.12.2016 03:10 1,3 C 97 % 1025,2 hPa 0,0 l/m 2,8 km/h (1 Bft) S-SO 157 0 min 0,000 mm 0,0 UV-I 0 W/m 0,9 C 1,3 C 6,4 km/h (2 Bft) 96,30 %
14.12.2016 03:12 1,3 C 97 % 1025,3 hPa 0,0 l/m 0,8 km/h (0 Bft) S-SO 157 0 min 0,000 mm 0,0 UV-I 0 W/m 0,9 C 1,3 C 3,2 km/h (1 Bft) 100,00 %
14.12.2016 03:14 1,3 C 97 % 1025,3 hPa 0,0 l/m 0,2 km/h (0 Bft) S-SO 157 0 min 0,000 mm 0,0 UV-I 0 W/m 0,9 C 1,3 C 1,6 km/h (1 Bft) 97,87 %
14.12.2016 03:16 1,3 C 97 % 1025,3 hPa 0,0 l/m 0,0 km/h (0 Bft) S-SO 157 0 min 0,000 mm 0,0 UV-I 0 W/m 0,9 C 1,3 C 0,0 km/h (0 Bft) 100,00 %
14.12.2016 03:18 1,3 C 97 % 1025,4 hPa 0,0 l/m 1,6 km/h (1 Bft) W-NW 286 0 min 0,000 mm 0,0 UV-I 0 W/m 0,9 C 1,3 C 4,8 km/h (1 Bft) 100,00 %
14.12.2016 03:20 1,3 C 97 % 1025,6 hPa 0,0 l/m 3,7 km/h (1 Bft) W 279 0 min 0,000 mm 0,0 UV-I 0 W/m 0,9 C 1,3 C 4,8 km/h (1 Bft) 100,00 %
14.12.2016 03:22 1,3 C 97 % 1025,5 hPa 0,0 l/m 0,9 km/h (0 Bft) W 279 0 min 0,000 mm 0,0 UV-I 0 W/m 0,9 C 1,3 C 3,2 km/h (1 Bft) 97,56 %
14.12.2016 03:24 1,3 C 97 % 1025,4 hPa 0,0 l/m 0,5 km/h (0 Bft) W-SW 258 0 min 0,000 mm 0,0 UV-I 0 W/m 0,9 C 1,3 C 3,2 km/h (1 Bft) 100,00 %
14.12.2016 03:26 1,3 C 97 % 1025,4 hPa 0,0 l/m 0,5 km/h (0 Bft) SW 236 0 min 0,000 mm 0,0 UV-I 0 W/m 0,9 C 1,3 C 1,6 km/h (1 Bft) 97,56 %
14.12.2016 03:28 1,4 C 97 % 1025,5 hPa 0,0 l/m 2,4 km/h (1 Bft) SW 236 0 min 0,000 mm 0,0 UV-I 0 W/m 1,0 C 1,4 C 4,8 km/h (1 Bft) 97,87 %
14.12.2016 03:30 1,4 C 97 % 1025,5 hPa 0,0 l/m 3,3 km/h (1 Bft) W-SW 246 0 min 0,000 mm 0,0 UV-I 0 W/m 1,0 C 1,4 C 6,4 km/h (2 Bft) 100,00 %
14.12.2016 03:32 1,4 C 97 % 1025,5 hPa 0,0 l/m 2,7 km/h (1 Bft) W-SW 246 0 min 0,000 mm 0,0 UV-I 0 W/m 1,0 C 1,4 C 3,2 km/h (1 Bft) 97,87 %
14.12.2016 03:34 1,4 C 97 % 1025,5 hPa 0,0 l/m 2,4 km/h (1 Bft) W-SW 246 0 min 0,000 mm 0,0 UV-I 0 W/m 1,0 C 1,4 C 3,2 km/h (1 Bft) 100,00 %
14.12.2016 03:36 1,4 C 97 % 1025,5 hPa 0,0 l/m 2,2 km/h (1 Bft) W-SW 247 0 min 0,000 mm 0,0 UV-I 0 W/m 1,0 C 1,4 C 4,8 km/h (1 Bft) 97,87 %
14.12.2016 03:38 1,4 C 97 % 1025,5 hPa 0,0 l/m 2,2 km/h (1 Bft) W-SW 247 0 min 0,000 mm 0,0 UV-I 0 W/m 1,0 C 1,4 C 3,2 km/h (1 Bft) 100,00 %
14.12.2016 03:40 1,4 C 97 % 1025,4 hPa 0,0 l/m 0,3 km/h (0 Bft) W-SW 247 0 min 0,000 mm 0,0 UV-I 0 W/m 1,0 C 1,4 C 1,6 km/h (1 Bft) 100,00 %
14.12.2016 03:42 1,4 C 97 % 1025,4 hPa 0,0 l/m 0,0 km/h (0 Bft) W-SW 247 0 min 0,000 mm 0,0 UV-I 0 W/m 1,0 C 1,4 C 0,0 km/h (0 Bft) 100,00 %
14.12.2016 03:44 1,4 C 97 % 1025,4 hPa 0,0 l/m 0,4 km/h (0 Bft) W-SW 247 0 min 0,000 mm 0,0 UV-I 0 W/m 1,0 C 1,4 C 1,6 km/h (1 Bft) 100,00 %
14.12.2016 03:46 1,4 C 97 % 1025,4 hPa 0,0 l/m 0,0 km/h (0 Bft) W-SW 247 0 min 0,000 mm 0,0 UV-I 0 W/m 1,0 C 1,4 C 0,0 km/h (0 Bft) 100,00 %
14.12.2016 03:48 1,4 C 97 % 1025,4 hPa 0,0 l/m 0,0 km/h (0 Bft) W-SW 247 0 min 0,000 mm 0,0 UV-I 0 W/m 1,0 C 1,4 C 0,0 km/h (0 Bft) 95,74 %
14.12.2016 03:50 1,4 C 97 % 1025,4 hPa 0,0 l/m 0,0 km/h (0 Bft) W-SW 247 0 min 0,000 mm 0,0 UV-I 0 W/m 1,0 C 1,4 C 0,0 km/h (0 Bft) 100,00 %
14.12.2016 03:52 1,4 C 97 % 1025,4 hPa 0,0 l/m 0,0 km/h (0 Bft) W-SW 247 0 min 0,000 mm 0,0 UV-I 0 W/m 1,0 C 1,4 C 0,0 km/h (0 Bft) 97,87 %
14.12.2016 03:54 1,4 C 97 % 1025,4 hPa 0,0 l/m 0,0 km/h (0 Bft) W-SW 247 0 min 0,000 mm 0,0 UV-I 0 W/m 1,0 C 1,4 C 0,0 km/h (0 Bft) 100,00 %
14.12.2016 03:56 1,5 C 97 % 1025,4 hPa 0,0 l/m 0,4 km/h (0 Bft) W-SW 247 0 min 0,000 mm 0,0 UV-I 0 W/m 1,1 C 1,5 C 3,2 km/h (1 Bft) 100,00 %
14.12.2016 03:58 1,4 C 97 % 1025,3 hPa 0,0 l/m 0,0 km/h (0 Bft) W-SW 247 0 min 0,000 mm 0,0 UV-I 0 W/m 1,0 C 1,4 C 1,6 km/h (1 Bft) 96,00 %
14.12.2016 04:00 1,4 C 97 % 1025,1 hPa 0,0 l/m 0,7 km/h (0 Bft) W-SW 247 0 min 0,000 mm 0,0 UV-I 0 W/m 1,0 C 1,4 C 3,2 km/h (1 Bft) 96,00 %
14.12.2016 04:02 1,4 C 97 % 1025,1 hPa 0,0 l/m 1,9 km/h (1 Bft) W-SW 247 0 min 0,000 mm 0,0 UV-I 0 W/m 1,0 C 1,4 C 3,2 km/h (1 Bft) 97,14 %
14.12.2016 04:04 1,4 C 97 % 1025,0 hPa 0,0 l/m 0,1 km/h (0 Bft) W-SW 247 0 min 0,000 mm 0,0 UV-I 0 W/m 1,0 C 1,4 C 1,6 km/h (1 Bft) 97,37 %
14.12.2016 04:06 1,4 C 97 % 1025,0 hPa 0,0 l/m 0,6 km/h (0 Bft) W-SW 247 0 min 0,000 mm 0,0 UV-I 0 W/m 1,0 C 1,4 C 3,2 km/h (1 Bft) 98,00 %
14.12.2016 04:08 1,4 C 97 % 1024,9 hPa 0,0 l/m 1,7 km/h (1 Bft) W-SW 247 0 min 0,000 mm 0,0 UV-I 0 W/m 1,0 C 1,4 C 3,2 km/h (1 Bft) 98,11 %
14.12.2016 04:10 1,5 C 97 % 1024,9 hPa 0,0 l/m 0,2 km/h (0 Bft) W-SW 247 0 min 0,000 mm 0,0 UV-I 0 W/m 1,1 C 1,5 C 1,6 km/h (1 Bft) 97,37 %
14.12.2016 04:12 1,5 C 97 % 1024,9 hPa 0,0 l/m 0,2 km/h (0 Bft) W-SW 247 0 min 0,000 mm 0,0 UV-I 0 W/m 1,1 C 1,5 C 1,6 km/h (1 Bft) 97,87 %
14.12.2016 04:14 1,5 C 97 % 1024,9 hPa 0,0 l/m 0,0 km/h (0 Bft) W-SW 247 0 min 0,000 mm 0,0 UV-I 0 W/m 1,1 C 1,5 C 0,0 km/h (0 Bft) 96,00 %
14.12.2016 04:16 1,5 C 97 % 1024,9 hPa 0,2 l/m 0,0 km/h (0 Bft) W-SW 247 0 min 0,000 mm 0,0 UV-I 0 W/m 1,1 C 1,5 C 1,6 km/h (1 Bft) 95,74 %
14.12.2016 04:18 1,5 C 97 % 1024,9 hPa 0,0 l/m 0,0 km/h (0 Bft) W-SW 247 0 min 0,000 mm 0,0 UV-I 0 W/m 1,1 C 1,5 C 0,0 km/h (0 Bft) 94,00 %
14.12.2016 04:20 1,5 C 97 % 1024,9 hPa 0,2 l/m 0,8 km/h (0 Bft) W-SW 247 0 min 0,000 mm 0,0 UV-I 0 W/m 1,1 C 1,5 C 3,2 km/h (1 Bft) 97,87 %
14.12.2016 04:22 1,5 C 97 % 1025,0 hPa 0,0 l/m 2,3 km/h (1 Bft) W-SW 247 0 min 0,000 mm 0,0 UV-I 0 W/m 1,1 C 1,5 C 3,2 km/h (1 Bft) 98,00 %
14.12.2016 04:24 1,5 C 97 % 1024,9 hPa 0,0 l/m 0,7 km/h (0 Bft) W-SW 247 0 min 0,000 mm 0,0 UV-I 0 W/m 1,1 C 1,5 C 3,2 km/h (1 Bft) 97,56 %
14.12.2016 04:26 1,5 C 97 % 1025,0 hPa 0,2 l/m 1,3 km/h (1 Bft) W-SW 246 0 min 0,000 mm 0,0 UV-I 0 W/m 1,1 C 1,5 C 3,2 km/h (1 Bft) 97,87 %
14.12.2016 04:28 1,5 C 97 % 1024,9 hPa 0,0 l/m 1,5 km/h (1 Bft) W-SW 246 0 min 0,000 mm 0,0 UV-I 0 W/m 1,1 C 1,5 C 3,2 km/h (1 Bft) 95,74 %
14.12.2016 04:30 1,5 C 97 % 1024,9 hPa 0,0 l/m 1,8 km/h (1 Bft) W-SW 246 0 min 0,000 mm 0,0 UV-I 0 W/m 1,1 C 1,5 C 3,2 km/h (1 Bft) 98,00 %
14.12.2016 04:32 1,6 C 97 % 1025,0 hPa 0,0 l/m 1,6 km/h (1 Bft) W-SW 251 0 min 0,000 mm 0,0 UV-I 0 W/m 1,2 C 1,6 C 3,2 km/h (1 Bft) 100,00 %
14.12.2016 04:34 1,6 C 97 % 1025,0 hPa 0,0 l/m 0,6 km/h (0 Bft) W-SW 251 0 min 0,000 mm 0,0 UV-I 0 W/m 1,2 C 1,6 C 3,2 km/h (1 Bft) 100,00 %
14.12.2016 04:36 1,6 C 97 % 1025,0 hPa 0,0 l/m 0,0 km/h (0 Bft) W-SW 251 0 min 0,000 mm 0,0 UV-I 0 W/m 1,2 C 1,6 C 0,0 km/h (0 Bft) 95,74 %
14.12.2016 04:38 1,6 C 97 % 1025,0 hPa 0,0 l/m 0,6 km/h (0 Bft) W-SW 251 0 min 0,000 mm 0,0 UV-I 0 W/m 1,2 C 1,6 C 3,2 km/h (1 Bft) 98,00 %
14.12.2016 04:40 1,6 C 97 % 1025,2 hPa 0,2 l/m 3,4 km/h (1 Bft) W-SW 251 0 min 0,000 mm 0,0 UV-I 0 W/m 1,2 C 1,6 C 4,8 km/h (1 Bft) 100,00 %
14.12.2016 04:42 1,6 C 97 % 1025,1 hPa 0,0 l/m 1,9 km/h (1 Bft) W-SW 251 0 min 0,000 mm 0,0 UV-I 0 W/m 1,2 C 1,6 C 3,2 km/h (1 Bft) 100,00 %
14.12.2016 04:44 1,6 C 97 % 1025,1 hPa 0,0 l/m 0,1 km/h (0 Bft) W-SW 251 0 min 0,000 mm 0,0 UV-I 0 W/m 1,2 C 1,6 C 3,2 km/h (1 Bft) 100,00 %
14.12.2016 04:46 1,6 C 97 % 1025,0 hPa 0,0 l/m 0,0 km/h (0 Bft) W-SW 251 0 min 0,000 mm 0,0 UV-I 0 W/m 1,2 C 1,6 C 0,0 km/h (0 Bft) 97,37 %
14.12.2016 04:48 1,6 C 97 % 1024,9 hPa 0,0 l/m 2,2 km/h (1 Bft) W-SW 251 0 min 0,000 mm 0,0 UV-I 0 W/m 1,2 C 1,6 C 3,2 km/h (1 Bft) 100,00 %
14.12.2016 04:50 1,6 C 97 % 1025,0 hPa 0,0 l/m 0,8 km/h (0 Bft) W-SW 251 0 min 0,000 mm 0,0 UV-I 0 W/m 1,2 C 1,6 C 3,2 km/h (1 Bft) 97,87 %
14.12.2016 04:52 1,6 C 97 % 1024,9 hPa 0,0 l/m 0,5 km/h (0 Bft) W-SW 251 0 min 0,000 mm 0,0 UV-I 0 W/m 1,2 C 1,6 C 3,2 km/h (1 Bft) 98,21 %
14.12.2016 04:54 1,6 C 97 % 1025,0 hPa 0,0 l/m 0,0 km/h (0 Bft) W-SW 251 0 min 0,000 mm 0,0 UV-I 0 W/m 1,2 C 1,6 C 0,0 km/h (0 Bft) 100,00 %
14.12.2016 04:56 1,6 C 97 % 1025,0 hPa 0,2 l/m 1,6 km/h (1 Bft) W-SW 251 0 min 0,000 mm 0,0 UV-I 0 W/m 1,2 C 1,6 C 3,2 km/h (1 Bft) 100,00 %
14.12.2016 04:58 1,6 C 97 % 1025,0 hPa 0,0 l/m 2,5 km/h (1 Bft) W-SW 251 0 min 0,000 mm 0,0 UV-I 0 W/m 1,2 C 1,6 C 3,2 km/h (1 Bft) 97,73 %
14.12.2016 05:00 1,6 C 97 % 1025,1 hPa 0,0 l/m 2,5 km/h (1 Bft) W-SW 251 0 min 0,000 mm 0,0 UV-I 0 W/m 1,2 C 1,6 C 3,2 km/h (1 Bft) 100,00 %
14.12.2016 05:02 1,6 C 97 % 1025,0 hPa 0,0 l/m 0,4 km/h (0 Bft) W-SW 251 0 min 0,000 mm 0,0 UV-I 0 W/m 1,2 C 1,6 C 1,6 km/h (1 Bft) 100,00 %
14.12.2016 05:04 1,6 C 97 % 1024,9 hPa 0,0 l/m 0,0 km/h (0 Bft) W-SW 251 0 min 0,000 mm 0,0 UV-I 0 W/m 1,2 C 1,6 C 0,0 km/h (0 Bft) 100,00 %
14.12.2016 05:06 1,6 C 97 % 1024,9 hPa 0,0 l/m 0,0 km/h (0 Bft) W-SW 251 0 min 0,000 mm 0,0 UV-I 0 W/m 1,2 C 1,6 C 0,0 km/h (0 Bft) 100,00 %
14.12.2016 05:08 1,6 C 97 % 1024,9 hPa 0,0 l/m 0,4 km/h (0 Bft) W-SW 251 0 min 0,000 mm 0,0 UV-I 0 W/m 1,2 C 1,6 C 3,2 km/h (1 Bft) 98,00 %
14.12.2016 05:10 1,6 C 97 % 1025,1 hPa 0,0 l/m 2,3 km/h (1 Bft) W-SW 251 0 min 0,000 mm 0,0 UV-I 0 W/m 1,2 C 1,6 C 3,2 km/h (1 Bft) 100,00 %
14.12.2016 05:12 1,6 C 97 % 1024,9 hPa 0,0 l/m 0,6 km/h (0 Bft) W-SW 251 0 min 0,000 mm 0,0 UV-I 0 W/m 1,2 C 1,6 C 1,6 km/h (1 Bft) 100,00 %
14.12.2016 05:14 1,6 C 97 % 1024,9 hPa 0,0 l/m 3,0 km/h (1 Bft) S 179 0 min 0,000 mm 0,0 UV-I 0 W/m 1,2 C 1,6 C 4,8 km/h (1 Bft) 100,00 %
14.12.2016 05:16 1,6 C 97 % 1024,9 hPa 0,0 l/m 0,2 km/h (0 Bft) S 179 0 min 0,000 mm 0,0 UV-I 0 W/m 1,2 C 1,6 C 1,6 km/h (1 Bft) 100,00 %
14.12.2016 05:18 1,6 C 97 % 1024,9 hPa 0,2 l/m 0,0 km/h (0 Bft) S 179 0 min 0,000 mm 0,0 UV-I 0 W/m 1,2 C 1,6 C 1,6 km/h (1 Bft) 100,00 %
14.12.2016 05:20 1,6 C 97 % 1025,1 hPa 0,0 l/m 3,7 km/h (1 Bft) S 184 0 min 0,000 mm 0,0 UV-I 0 W/m 1,2 C 1,6 C 4,8 km/h (1 Bft) 98,11 %
14.12.2016 05:22 1,6 C 98 % 1025,1 hPa 0,0 l/m 2,3 km/h (1 Bft) S 184 0 min 0,000 mm 0,0 UV-I 0 W/m 1,3 C 1,6 C 4,8 km/h (1 Bft) 100,00 %
14.12.2016 05:24 1,6 C 98 % 1025,0 hPa 0,0 l/m 2,0 km/h (1 Bft) S 184 0 min 0,000 mm 0,0 UV-I 0 W/m 1,3 C 1,6 C 3,2 km/h (1 Bft) 97,37 %
14.12.2016 05:26 1,7 C 98 % 1025,0 hPa 0,0 l/m 2,8 km/h (1 Bft) S 184 0 min 0,000 mm 0,0 UV-I 0 W/m 1,4 C 1,7 C 4,8 km/h (1 Bft) 100,00 %
14.12.2016 05:28 1,7 C 98 % 1025,0 hPa 0,0 l/m 2,6 km/h (1 Bft) S 184 0 min 0,000 mm 0,0 UV-I 0 W/m 1,4 C 1,7 C 4,8 km/h (1 Bft) 100,00 %
14.12.2016 05:30 1,7 C 98 % 1025,0 hPa 0,0 l/m 2,3 km/h (1 Bft) S 184 0 min 0,000 mm 0,0 UV-I 0 W/m 1,4 C 1,7 C 3,2 km/h (1 Bft) 98,00 %
14.12.2016 05:32 1,7 C 98 % 1025,0 hPa 0,0 l/m 1,6 km/h (1 Bft) S 184 0 min 0,000 mm 0,0 UV-I 0 W/m 1,4 C 1,7 C 3,2 km/h (1 Bft) 100,00 %
14.12.2016 05:34 1,7 C 98 % 1025,0 hPa 0,0 l/m 0,0 km/h (0 Bft) S 184 0 min 0,000 mm 0,0 UV-I 0 W/m 1,4 C 1,7 C 0,0 km/h (0 Bft) 100,00 %
14.12.2016 05:36 1,7 C 98 % 1024,9 hPa 0,0 l/m 0,6 km/h (0 Bft) S 184 0 min 0,000 mm 0,0 UV-I 0 W/m 1,4 C 1,7 C 3,2 km/h (1 Bft) 100,00 %
14.12.2016 05:38 1,7 C 98 % 1024,9 hPa 0,0 l/m 1,2 km/h (1 Bft) S 184 0 min 0,000 mm 0,0 UV-I 0 W/m 1,4 C 1,7 C 3,2 km/h (1 Bft) 100,00 %
14.12.2016 05:40 1,7 C 98 % 1024,9 hPa 0,0 l/m 1,6 km/h (1 Bft) S 184 0 min 0,000 mm 0,0 UV-I 0 W/m 1,4 C 1,7 C 4,8 km/h (1 Bft) 100,00 %
14.12.2016 05:42 1,7 C 98 % 1024,9 hPa 0,0 l/m 0,0 km/h (0 Bft) S 184 0 min 0,000 mm 0,0 UV-I 0 W/m 1,4 C 1,7 C 0,0 km/h (0 Bft) 100,00 %
14.12.2016 05:44 1,7 C 97 % 1024,8 hPa 0,0 l/m 0,6 km/h (0 Bft) S 184 0 min 0,000 mm 0,0 UV-I 0 W/m 1,3 C 1,7 C 1,6 km/h (1 Bft) 100,00 %
14.12.2016 05:46 1,7 C 97 % 1024,9 hPa 0,0 l/m 0,0 km/h (0 Bft) S 184 0 min 0,000 mm 0,0 UV-I 0 W/m 1,3 C 1,7 C 0,0 km/h (0 Bft) 100,00 %
14.12.2016 05:48 1,7 C 97 % 1025,0 hPa 0,0 l/m 0,4 km/h (0 Bft) S 184 0 min 0,000 mm 0,0 UV-I 0 W/m 1,3 C 1,7 C 3,2 km/h (1 Bft) 100,00 %
14.12.2016 05:50 1,7 C 97 % 1025,0 hPa 0,0 l/m 1,3 km/h (1 Bft) S 184 0 min 0,000 mm 0,0 UV-I 0 W/m 1,3 C 1,7 C 3,2 km/h (1 Bft) 100,00 %
14.12.2016 05:52 1,7 C 97 % 1025,0 hPa 0,0 l/m 0,2 km/h (0 Bft) S 184 0 min 0,000 mm 0,0 UV-I 0 W/m 1,3 C 1,7 C 1,6 km/h (1 Bft) 98,00 %
14.12.2016 05:54 1,7 C 97 % 1025,1 hPa 0,0 l/m 0,7 km/h (0 Bft) S 184 0 min 0,000 mm 0,0 UV-I 0 W/m 1,3 C 1,7 C 1,6 km/h (1 Bft) 98,11 %
14.12.2016 05:56 1,7 C 97 % 1025,2 hPa 0,0 l/m 0,3 km/h (0 Bft) S 184 0 min 0,000 mm 0,0 UV-I 0 W/m 1,3 C 1,7 C 3,2 km/h (1 Bft) 100,00 %
14.12.2016 05:58 1,7 C 97 % 1025,2 hPa 0,0 l/m 0,2 km/h (0 Bft) S 184 0 min 0,000 mm 0,0 UV-I 0 W/m 1,3 C 1,7 C 1,6 km/h (1 Bft) 98,00 %
14.12.2016 06:00 1,7 C 97 % 1025,2 hPa 0,0 l/m 1,0 km/h (0 Bft) S 184 0 min 0,000 mm 0,0 UV-I 0 W/m 1,3 C 1,7 C 3,2 km/h (1 Bft) 98,00 %
14.12.2016 06:02 1,7 C 97 % 1025,2 hPa 0,0 l/m 0,2 km/h (0 Bft) S 184 0 min 0,000 mm 0,0 UV-I 0 W/m 1,3 C 1,7 C 1,6 km/h (1 Bft) 91,49 %
14.12.2016 06:04 1,7 C 98 % 1025,2 hPa 0,0 l/m 0,0 km/h (0 Bft) S 184 0 min 0,000 mm 0,0 UV-I 0 W/m 1,4 C 1,7 C 0,0 km/h (0 Bft) 93,62 %
14.12.2016 06:06 1,7 C 98 % 1025,2 hPa 0,0 l/m 0,3 km/h (0 Bft) S 184 0 min 0,000 mm 0,0 UV-I 0 W/m 1,4 C 1,7 C 1,6 km/h (1 Bft) 97,14 %
14.12.2016 06:08 1,7 C 98 % 1025,2 hPa 0,0 l/m 0,6 km/h (0 Bft) S 184 0 min 0,000 mm 0,0 UV-I 0 W/m 1,4 C 1,7 C 1,6 km/h (1 Bft) 98,11 %
14.12.2016 06:10 1,7 C 98 % 1025,1 hPa 0,0 l/m 0,4 km/h (0 Bft) S 184 0 min 0,000 mm 0,0 UV-I 0 W/m 1,4 C 1,7 C 1,6 km/h (1 Bft) 97,37 %
14.12.2016 06:12 1,7 C 98 % 1025,0 hPa 0,0 l/m 1,4 km/h (1 Bft) S 184 0 min 0,000 mm 0,0 UV-I 0 W/m 1,4 C 1,7 C 3,2 km/h (1 Bft) 96,92 %
14.12.2016 06:14 1,7 C 98 % 1025,0 hPa 0,0 l/m 1,3 km/h (1 Bft) S 184 0 min 0,000 mm 0,0 UV-I 0 W/m 1,4 C 1,7 C 3,2 km/h (1 Bft) 97,87 %
14.12.2016 06:16 1,7 C 98 % 1024,9 hPa 0,0 l/m 1,6 km/h (1 Bft) S 184 0 min 0,000 mm 0,0 UV-I 0 W/m 1,4 C 1,7 C 3,2 km/h (1 Bft) 97,37 %
14.12.2016 06:18 1,8 C 98 % 1025,0 hPa 0,0 l/m 1,0 km/h (0 Bft) S 184 0 min 0,000 mm 0,0 UV-I 0 W/m 1,5 C 1,8 C 3,2 km/h (1 Bft) 96,00 %
14.12.2016 06:20 1,8 C 98 % 1025,0 hPa 0,0 l/m 0,9 km/h (0 Bft) S 184 0 min 0,000 mm 0,0 UV-I 0 W/m 1,5 C 1,8 C 3,2 km/h (1 Bft) 97,56 %
14.12.2016 06:22 1,8 C 98 % 1025,0 hPa 0,0 l/m 0,1 km/h (0 Bft) S 184 0 min 0,000 mm 0,0 UV-I 0 W/m 1,5 C 1,8 C 1,6 km/h (1 Bft) 93,62 %
14.12.2016 06:24 1,8 C 98 % 1025,0 hPa 0,0 l/m 1,4 km/h (1 Bft) S 184 0 min 0,000 mm 0,0 UV-I 0 W/m 1,5 C 1,8 C 3,2 km/h (1 Bft) 96,00 %
14.12.2016 06:26 1,8 C 98 % 1025,1 hPa 0,0 l/m 1,4 km/h (1 Bft) S 184 0 min 0,000 mm 0,0 UV-I 0 W/m 1,5 C 1,8 C 3,2 km/h (1 Bft) 97,87 %
14.12.2016 06:28 1,8 C 98 % 1025,1 hPa 0,0 l/m 1,5 km/h (1 Bft) S 184 0 min 0,000 mm 0,0 UV-I 0 W/m 1,5 C 1,8 C 3,2 km/h (1 Bft) 97,87 %
14.12.2016 06:30 1,8 C 98 % 1025,1 hPa 0,0 l/m 1,5 km/h (1 Bft) S 184 0 min 0,000 mm 0,0 UV-I 0 W/m 1,5 C 1,8 C 3,2 km/h (1 Bft) 96,00 %
14.12.2016 06:32 1,8 C 98 % 1025,2 hPa 0,0 l/m 2,7 km/h (1 Bft) S 184 0 min 0,000 mm 0,0 UV-I 0 W/m 1,5 C 1,8 C 4,8 km/h (1 Bft) 96,00 %
14.12.2016 06:34 1,8 C 98 % 1025,1 hPa 0,0 l/m 2,0 km/h (1 Bft) S 184 0 min 0,000 mm 0,0 UV-I 0 W/m 1,5 C 1,8 C 3,2 km/h (1 Bft) 97,78 %
14.12.2016 06:36 1,8 C 98 % 1025,1 hPa 0,0 l/m 1,6 km/h (1 Bft) S 184 0 min 0,000 mm 0,0 UV-I 0 W/m 1,5 C 1,8 C 3,2 km/h (1 Bft) 95,74 %
14.12.2016 06:38 1,8 C 98 % 1025,1 hPa 0,0 l/m 1,3 km/h (1 Bft) S 184 0 min 0,000 mm 0,0 UV-I 0 W/m 1,5 C 1,8 C 3,2 km/h (1 Bft) 100,00 %
14.12.2016 06:40 1,8 C 98 % 1025,1 hPa 0,0 l/m 0,1 km/h (0 Bft) S 184 0 min 0,000 mm 0,0 UV-I 0 W/m 1,5 C 1,8 C 1,6 km/h (1 Bft) 98,00 %
14.12.2016 06:42 1,8 C 98 % 1025,1 hPa 0,0 l/m 0,6 km/h (0 Bft) S 184 0 min 0,000 mm 0,0 UV-I 0 W/m 1,5 C 1,8 C 1,6 km/h (1 Bft) 97,87 %
14.12.2016 06:44 1,8 C 98 % 1025,0 hPa 0,0 l/m 1,5 km/h (1 Bft) S 184 0 min 0,000 mm 0,0 UV-I 0 W/m 1,5 C 1,8 C 3,2 km/h (1 Bft) 98,00 %
14.12.2016 06:46 1,8 C 98 % 1025,1 hPa 0,0 l/m 1,7 km/h (1 Bft) S 184 0 min 0,000 mm 0,0 UV-I 0 W/m 1,5 C 1,8 C 3,2 km/h (1 Bft) 97,37 %
14.12.2016 06:48 1,8 C 98 % 1025,1 hPa 0,0 l/m 1,4 km/h (1 Bft) S 184 0 min 0,000 mm 0,0 UV-I 0 W/m 1,5 C 1,8 C 3,2 km/h (1 Bft) 100,00 %
14.12.2016 06:50 1,8 C 98 % 1025,1 hPa 0,0 l/m 2,8 km/h (1 Bft) S 186 0 min 0,000 mm 0,0 UV-I 0 W/m 1,5 C 1,8 C 4,8 km/h (1 Bft) 100,00 %
14.12.2016 06:52 1,8 C 98 % 1025,1 hPa 0,0 l/m 1,4 km/h (1 Bft) S 189 0 min 0,000 mm 0,0 UV-I 0 W/m 1,5 C 1,8 C 3,2 km/h (1 Bft) 96,43 %
14.12.2016 06:54 1,8 C 98 % 1025,2 hPa 0,0 l/m 0,3 km/h (0 Bft) S 189 0 min 0,000 mm 0,0 UV-I 0 W/m 1,5 C 1,8 C 1,6 km/h (1 Bft) 100,00 %
14.12.2016 06:56 1,8 C 98 % 1025,1 hPa 0,0 l/m 0,0 km/h (0 Bft) S 189 0 min 0,000 mm 0,0 UV-I 0 W/m 1,5 C 1,8 C 0,0 km/h (0 Bft) 100,00 %
14.12.2016 06:58 1,8 C 98 % 1025,2 hPa 0,0 l/m 0,1 km/h (0 Bft) S 189 0 min 0,000 mm 0,0 UV-I 0 W/m 1,5 C 1,8 C 1,6 km/h (1 Bft) 97,87 %
14.12.2016 07:00 1,8 C 98 % 1025,2 hPa 0,0 l/m 0,0 km/h (0 Bft) S 189 0 min 0,000 mm 0,0 UV-I 0 W/m 1,5 C 1,8 C 0,0 km/h (0 Bft) 100,00 %
14.12.2016 07:02 1,8 C 98 % 1025,1 hPa 0,0 l/m 0,0 km/h (0 Bft) S 189 0 min 0,000 mm 0,0 UV-I 0 W/m 1,5 C 1,8 C 0,0 km/h (0 Bft) 97,87 %
14.12.2016 07:04 1,8 C 98 % 1025,1 hPa 0,0 l/m 0,2 km/h (0 Bft) S 189 0 min 0,000 mm 0,0 UV-I 0 W/m 1,5 C 1,8 C 1,6 km/h (1 Bft) 96,00 %
14.12.2016 07:06 1,8 C 98 % 1025,1 hPa 0,0 l/m 1,1 km/h (1 Bft) S 189 0 min 0,000 mm 0,0 UV-I 0 W/m 1,5 C 1,8 C 1,6 km/h (1 Bft) 100,00 %
14.12.2016 07:08 1,8 C 98 % 1025,1 hPa 0,0 l/m 0,0 km/h (0 Bft) S 189 0 min 0,000 mm 0,0 UV-I 0 W/m 1,5 C 1,8 C 1,6 km/h (1 Bft) 100,00 %
14.12.2016 07:10 1,8 C 98 % 1025,1 hPa 0,0 l/m 0,0 km/h (0 Bft) S 189 0 min 0,000 mm 0,0 UV-I 0 W/m 1,5 C 1,8 C 0,0 km/h (0 Bft) 100,00 %
14.12.2016 07:12 1,8 C 98 % 1025,1 hPa 0,0 l/m 0,0 km/h (0 Bft) S 189 0 min 0,000 mm 0,0 UV-I 0 W/m 1,5 C 1,8 C 0,0 km/h (0 Bft) 100,00 %
14.12.2016 07:14 1,8 C 98 % 1025,1 hPa 0,0 l/m 0,0 km/h (0 Bft) S 189 0 min 0,000 mm 0,0 UV-I 0 W/m 1,5 C 1,8 C 0,0 km/h (0 Bft) 100,00 %
14.12.2016 07:16 1,8 C 98 % 1025,1 hPa 0,0 l/m 0,0 km/h (0 Bft) S 189 0 min 0,000 mm 0,0 UV-I 0 W/m 1,5 C 1,8 C 0,0 km/h (0 Bft) 97,87 %
14.12.2016 07:18 1,8 C 98 % 1025,1 hPa 0,0 l/m 0,0 km/h (0 Bft) S 189 0 min 0,000 mm 0,0 UV-I 0 W/m 1,5 C 1,8 C 0,0 km/h (0 Bft) 97,14 %
14.12.2016 07:20 1,8 C 98 % 1025,1 hPa 0,0 l/m 0,0 km/h (0 Bft) S 189 0 min 0,000 mm 0,0 UV-I 0 W/m 1,5 C 1,8 C 0,0 km/h (0 Bft) 98,39 %
14.12.2016 07:22 1,8 C 98 % 1025,1 hPa 0,0 l/m 0,0 km/h (0 Bft) S 189 0 min 0,000 mm 0,0 UV-I 0 W/m 1,5 C 1,8 C 0,0 km/h (0 Bft) 100,00 %
14.12.2016 07:24 1,8 C 98 % 1025,0 hPa 0,0 l/m 0,0 km/h (0 Bft) S 189 0 min 0,000 mm 0,0 UV-I 0 W/m 1,5 C 1,8 C 0,0 km/h (0 Bft) 100,00 %
14.12.2016 07:26 1,8 C 98 % 1025,0 hPa 0,0 l/m 0,0 km/h (0 Bft) S 189 0 min 0,000 mm 0,0 UV-I 0 W/m 1,5 C 1,8 C 0,0 km/h (0 Bft) 98,00 %
14.12.2016 07:28 1,8 C 98 % 1025,0 hPa 0,0 l/m 0,0 km/h (0 Bft) S 189 0 min 0,000 mm 0,0 UV-I 0 W/m 1,5 C 1,8 C 0,0 km/h (0 Bft) 100,00 %
14.12.2016 07:30 1,8 C 98 % 1025,0 hPa 0,0 l/m 0,0 km/h (0 Bft) S 189 0 min 0,000 mm 0,0 UV-I 0 W/m 1,5 C 1,8 C 0,0 km/h (0 Bft) 100,00 %
14.12.2016 07:32 1,8 C 98 % 1025,0 hPa 0,0 l/m 0,0 km/h (0 Bft) S 189 0 min 0,000 mm 0,0 UV-I 0 W/m 1,5 C 1,8 C 0,0 km/h (0 Bft) 98,00 %
14.12.2016 07:34 1,8 C 98 % 1025,0 hPa 0,0 l/m 0,0 km/h (0 Bft) S 189 0 min 0,000 mm 0,0 UV-I 0 W/m 1,5 C 1,8 C 0,0 km/h (0 Bft) 100,00 %
14.12.2016 07:36 1,8 C 98 % 1025,0 hPa 0,0 l/m 0,0 km/h (0 Bft) S 189 0 min 0,000 mm 0,0 UV-I 0 W/m 1,5 C 1,8 C 0,0 km/h (0 Bft) 100,00 %
14.12.2016 07:38 1,8 C 98 % 1025,0 hPa 0,0 l/m 0,0 km/h (0 Bft) S 189 0 min 0,000 mm 0,0 UV-I 0 W/m 1,5 C 1,8 C 0,0 km/h (0 Bft) 100,00 %
14.12.2016 07:40 1,8 C 98 % 1025,0 hPa 0,0 l/m 0,1 km/h (0 Bft) S 189 0 min 0,000 mm 0,0 UV-I 0 W/m 1,5 C 1,8 C 1,6 km/h (1 Bft) 96,00 %
14.12.2016 07:42 1,8 C 98 % 1025,0 hPa 0,0 l/m 0,0 km/h (0 Bft) S 189 0 min 0,000 mm 0,0 UV-I 0 W/m 1,5 C 1,8 C 0,0 km/h (0 Bft) 100,00 %
14.12.2016 07:44 1,8 C 98 % 1025,0 hPa 0,0 l/m 0,1 km/h (0 Bft) S 189 0 min 0,000 mm 0,0 UV-I 1 W/m 1,5 C 1,8 C 1,6 km/h (1 Bft) 100,00 %
14.12.2016 07:46 1,8 C 98 % 1025,1 hPa 0,0 l/m 0,6 km/h (0 Bft) S 189 0 min 0,000 mm 0,0 UV-I 5 W/m 1,5 C 1,8 C 1,6 km/h (1 Bft) 100,00 %
14.12.2016 07:48 1,8 C 98 % 1025,1 hPa 0,0 l/m 0,3 km/h (0 Bft) S 189 0 min 0,000 mm 0,0 UV-I 5 W/m 1,5 C 1,8 C 1,6 km/h (1 Bft) 100,00 %
14.12.2016 07:50 1,8 C 98 % 1025,0 hPa 0,0 l/m 0,0 km/h (0 Bft) S 189 0 min 0,000 mm 0,0 UV-I 5 W/m 1,5 C 1,8 C 0,0 km/h (0 Bft) 100,00 %
14.12.2016 07:52 1,8 C 98 % 1025,0 hPa 0,0 l/m 0,0 km/h (0 Bft) S 189 0 min 0,000 mm 0,0 UV-I 5 W/m 1,5 C 1,8 C 0,0 km/h (0 Bft) 100,00 %
14.12.2016 07:54 1,8 C 98 % 1025,0 hPa 0,0 l/m 0,0 km/h (0 Bft) S 189 0 min 0,000 mm 0,0 UV-I 5 W/m 1,5 C 1,8 C 0,0 km/h (0 Bft) 100,00 %
14.12.2016 07:56 1,8 C 98 % 1025,0 hPa 0,0 l/m 0,0 km/h (0 Bft) S 189 0 min 0,000 mm 0,0 UV-I 6 W/m 1,5 C 1,8 C 0,0 km/h (0 Bft) 100,00 %
14.12.2016 07:58 1,8 C 98 % 1025,1 hPa 0,0 l/m 1,0 km/h (0 Bft) S 189 0 min 0,000 mm 0,0 UV-I 7 W/m 1,5 C 1,8 C 1,6 km/h (1 Bft) 97,87 %
14.12.2016 08:00 1,8 C 98 % 1025,1 hPa 0,0 l/m 0,9 km/h (0 Bft) S 189 0 min 0,000 mm 0,0 UV-I 7 W/m 1,5 C 1,8 C 1,6 km/h (1 Bft) 100,00 %
14.12.2016 08:02 1,8 C 98 % 1025,1 hPa 0,0 l/m 1,0 km/h (0 Bft) S 189 0 min 0,000 mm 0,0 UV-I 7 W/m 1,5 C 1,8 C 3,2 km/h (1 Bft) 97,87 %
14.12.2016 08:04 1,8 C 98 % 1025,2 hPa 0,0 l/m 0,4 km/h (0 Bft) S 189 0 min 0,000 mm 0,0 UV-I 8 W/m 1,5 C 1,8 C 1,6 km/h (1 Bft) 100,00 %
14.12.2016 08:06 1,8 C 98 % 1025,2 hPa 0,0 l/m 0,0 km/h (0 Bft) S 189 0 min 0,000 mm 0,0 UV-I 10 W/m 1,5 C 1,8 C 0,0 km/h (0 Bft) 97,87 %
14.12.2016 08:08 1,8 C 98 % 1025,2 hPa 0,0 l/m 0,4 km/h (0 Bft) S 189 0 min 0,000 mm 0,0 UV-I 11 W/m 1,5 C 1,8 C 1,6 km/h (1 Bft) 97,87 %
14.12.2016 08:10 1,8 C 98 % 1025,2 hPa 0,0 l/m 0,0 km/h (0 Bft) S 189 0 min 0,000 mm 0,0 UV-I 11 W/m 1,5 C 1,8 C 0,0 km/h (0 Bft) 97,73 %
14.12.2016 08:12 1,9 C 98 % 1025,2 hPa 0,0 l/m 0,0 km/h (0 Bft) S 189 0 min 0,000 mm 0,0 UV-I 11 W/m 1,6 C 1,9 C 0,0 km/h (0 Bft) 96,00 %
14.12.2016 08:14 1,9 C 98 % 1025,2 hPa 0,0 l/m 0,0 km/h (0 Bft) S 189 0 min 0,000 mm 0,0 UV-I 11 W/m 1,6 C 1,9 C 0,0 km/h (0 Bft) 98,11 %
14.12.2016 08:16 1,9 C 98 % 1025,2 hPa 0,0 l/m 0,1 km/h (0 Bft) S 189 0 min 0,000 mm 0,0 UV-I 11 W/m 1,6 C 1,9 C 1,6 km/h (1 Bft) 97,87 %
14.12.2016 08:18 1,9 C 98 % 1025,2 hPa 0,0 l/m 0,5 km/h (0 Bft) S-SW 192 0 min 0,000 mm 0,0 UV-I 11 W/m 1,6 C 1,9 C 3,2 km/h (1 Bft) 97,56 %
14.12.2016 08:20 1,9 C 98 % 1025,2 hPa 0,0 l/m 0,0 km/h (0 Bft) S-SW 192 0 min 0,000 mm 0,0 UV-I 11 W/m 1,6 C 1,9 C 1,6 km/h (1 Bft) 93,62 %
14.12.2016 08:22 1,9 C 98 % 1025,3 hPa 0,0 l/m 0,0 km/h (0 Bft) S-SW 192 0 min 0,000 mm 0,0 UV-I 12 W/m 1,6 C 1,9 C 0,0 km/h (0 Bft) 96,23 %
14.12.2016 08:24 1,9 C 98 % 1025,3 hPa 0,0 l/m 0,4 km/h (0 Bft) S-SW 192 0 min 0,000 mm 0,0 UV-I 17 W/m 1,6 C 1,9 C 1,6 km/h (1 Bft) 97,87 %
14.12.2016 08:26 1,9 C 98 % 1025,2 hPa 0,0 l/m 0,1 km/h (0 Bft) S-SW 192 0 min 0,000 mm 0,0 UV-I 19 W/m 1,6 C 1,9 C 1,6 km/h (1 Bft) 97,30 %
14.12.2016 08:28 1,9 C 98 % 1025,3 hPa 0,0 l/m 0,7 km/h (0 Bft) S-SW 192 0 min 0,000 mm 0,0 UV-I 19 W/m 1,6 C 1,9 C 1,6 km/h (1 Bft) 98,08 %
14.12.2016 08:30 2,0 C 98 % 1025,3 hPa 0,0 l/m 0,2 km/h (0 Bft) S-SW 192 0 min 0,000 mm 0,0 UV-I 19 W/m 1,7 C 2,0 C 1,6 km/h (1 Bft) 96,00 %
14.12.2016 08:32 2,0 C 98 % 1025,3 hPa 0,0 l/m 0,3 km/h (0 Bft) S-SW 192 0 min 0,000 mm 0,0 UV-I 19 W/m 1,7 C 2,0 C 1,6 km/h (1 Bft) 97,44 %
14.12.2016 08:34 2,0 C 98 % 1025,4 hPa 0,0 l/m 0,5 km/h (0 Bft) S-SW 192 0 min 0,000 mm 0,0 UV-I 18 W/m 1,7 C 2,0 C 3,2 km/h (1 Bft) 96,00 %
14.12.2016 08:36 2,1 C 98 % 1025,4 hPa 0,0 l/m 0,3 km/h (0 Bft) S-SW 192 0 min 0,000 mm 0,0 UV-I 18 W/m 1,8 C 2,1 C 1,6 km/h (1 Bft) 96,23 %
14.12.2016 08:38 2,0 C 98 % 1025,4 hPa 0,0 l/m 0,0 km/h (0 Bft) S-SW 192 0 min 0,000 mm 0,0 UV-I 21 W/m 1,7 C 2,0 C 0,0 km/h (0 Bft) 100,00 %
14.12.2016 08:40 2,1 C 98 % 1025,5 hPa 0,0 l/m 1,9 km/h (1 Bft) S-SW 192 0 min 0,000 mm 0,0 UV-I 25 W/m 1,8 C 2,1 C 3,2 km/h (1 Bft) 98,00 %
14.12.2016 08:42 2,1 C 98 % 1025,6 hPa 0,0 l/m 0,9 km/h (0 Bft) S-SW 192 0 min 0,000 mm 0,0 UV-I 24 W/m 1,8 C 2,1 C 1,6 km/h (1 Bft) 100,00 %
14.12.2016 08:44 2,1 C 98 % 1025,5 hPa 0,0 l/m 0,7 km/h (0 Bft) S-SW 192 0 min 0,000 mm 0,0 UV-I 20 W/m 1,8 C 2,1 C 3,2 km/h (1 Bft) 100,00 %
14.12.2016 08:46 2,1 C 98 % 1025,5 hPa 0,0 l/m 0,3 km/h (0 Bft) S-SW 192 0 min 0,000 mm 0,0 UV-I 20 W/m 1,8 C 2,1 C 3,2 km/h (1 Bft) 97,87 %
14.12.2016 08:48 2,1 C 98 % 1025,3 hPa 0,0 l/m 0,8 km/h (0 Bft) S-SW 192 0 min 0,000 mm 0,0 UV-I 24 W/m 1,8 C 2,1 C 4,8 km/h (1 Bft) 100,00 %
14.12.2016 08:50 2,1 C 98 % 1025,4 hPa 0,0 l/m 0,2 km/h (0 Bft) S-SW 192 0 min 0,000 mm 0,0 UV-I 29 W/m 1,8 C 2,1 C 1,6 km/h (1 Bft) 100,00 %
14.12.2016 08:52 2,1 C 98 % 1025,4 hPa 0,0 l/m 2,3 km/h (1 Bft) W 275 0 min 0,000 mm 0,0 UV-I 30 W/m 1,8 C 2,1 C 4,8 km/h (1 Bft) 97,73 %
14.12.2016 08:54 2,1 C 98 % 1025,5 hPa 0,0 l/m 1,8 km/h (1 Bft) W 275 0 min 0,000 mm 0,0 UV-I 29 W/m 1,8 C 2,1 C 3,2 km/h (1 Bft) 100,00 %
14.12.2016 08:56 2,2 C 98 % 1025,5 hPa 0,0 l/m 2,0 km/h (1 Bft) W 275 0 min 0,000 mm 0,0 UV-I 27 W/m 1,9 C 2,2 C 4,8 km/h (1 Bft) 97,37 %
14.12.2016 08:58 2,2 C 98 % 1025,4 hPa 0,0 l/m 2,8 km/h (1 Bft) W 275 0 min 0,000 mm 0,0 UV-I 26 W/m 1,9 C 2,2 C 3,2 km/h (1 Bft) 98,11 %
14.12.2016 09:00 2,2 C 98 % 1025,4 hPa 0,0 l/m 2,5 km/h (1 Bft) W-SW 252 0 min 0,000 mm 0,0 UV-I 28 W/m 1,9 C 2,2 C 4,8 km/h (1 Bft) 100,00 %
14.12.2016 09:02 2,2 C 98 % 1025,5 hPa 0,0 l/m 3,4 km/h (1 Bft) W 260 0 min 0,000 mm 0,0 UV-I 29 W/m 1,9 C 2,2 C 4,8 km/h (1 Bft) 100,00 %
14.12.2016 09:04 2,2 C 98 % 1025,5 hPa 0,0 l/m 3,7 km/h (1 Bft) SW 235 0 min 0,000 mm 0,0 UV-I 28 W/m 1,9 C 2,2 C 6,4 km/h (2 Bft) 100,00 %
14.12.2016 09:06 2,2 C 98 % 1025,5 hPa 0,0 l/m 3,7 km/h (1 Bft) SW 236 0 min 0,000 mm 0,0 UV-I 26 W/m 1,9 C 2,2 C 6,4 km/h (2 Bft) 95,24 %
14.12.2016 09:08 2,2 C 98 % 1025,5 hPa 0,0 l/m 3,7 km/h (1 Bft) W 267 0 min 0,000 mm 0,0 UV-I 31 W/m 1,9 C 2,2 C 4,8 km/h (1 Bft) 98,18 %
14.12.2016 09:10 2,2 C 98 % 1025,5 hPa 0,0 l/m 2,9 km/h (1 Bft) W 267 0 min 0,000 mm 0,0 UV-I 33 W/m 1,9 C 2,2 C 4,8 km/h (1 Bft) 100,00 %
14.12.2016 09:12 2,2 C 98 % 1025,5 hPa 0,0 l/m 2,8 km/h (1 Bft) W 267 0 min 0,000 mm 0,0 UV-I 31 W/m 1,9 C 2,2 C 4,8 km/h (1 Bft) 100,00 %
14.12.2016 09:14 2,3 C 98 % 1025,5 hPa 0,0 l/m 3,4 km/h (1 Bft) W 267 0 min 0,000 mm 0,0 UV-I 29 W/m 2,0 C 2,3 C 4,8 km/h (1 Bft) 100,00 %
14.12.2016 09:16 2,3 C 98 % 1025,5 hPa 0,0 l/m 3,6 km/h (1 Bft) W 267 0 min 0,000 mm 0,0 UV-I 31 W/m 2,0 C 2,3 C 4,8 km/h (1 Bft) 100,00 %
14.12.2016 09:18 2,3 C 98 % 1025,5 hPa 0,0 l/m 3,3 km/h (1 Bft) W-SW 248 0 min 0,000 mm 0,0 UV-I 33 W/m 2,0 C 2,3 C 4,8 km/h (1 Bft) 100,00 %
14.12.2016 09:20 2,3 C 98 % 1025,5 hPa 0,0 l/m 4,7 km/h (1 Bft) W-SW 245 0 min 0,000 mm 0,0 UV-I 34 W/m 2,0 C 2,3 C 6,4 km/h (2 Bft) 100,00 %
14.12.2016 09:22 2,3 C 98 % 1025,6 hPa 0,0 l/m 3,5 km/h (1 Bft) W-SW 246 0 min 0,000 mm 0,0 UV-I 33 W/m 2,0 C 2,3 C 4,8 km/h (1 Bft) 100,00 %
14.12.2016 09:24 2,3 C 98 % 1025,6 hPa 0,0 l/m 3,2 km/h (1 Bft) W-SW 246 0 min 0,000 mm 0,0 UV-I 35 W/m 2,0 C 2,3 C 4,8 km/h (1 Bft) 100,00 %
14.12.2016 09:26 2,3 C 98 % 1025,6 hPa 0,0 l/m 2,2 km/h (1 Bft) W-SW 246 0 min 0,000 mm 0,0 UV-I 39 W/m 2,0 C 2,3 C 4,8 km/h (1 Bft) 100,00 %
14.12.2016 09:28 2,3 C 98 % 1025,5 hPa 0,0 l/m 1,6 km/h (1 Bft) W-SW 246 0 min 0,000 mm 0,0 UV-I 40 W/m 2,0 C 2,3 C 3,2 km/h (1 Bft) 100,00 %
14.12.2016 09:30 2,3 C 98 % 1025,5 hPa 0,0 l/m 0,8 km/h (0 Bft) W-SW 246 0 min 0,000 mm 0,0 UV-I 41 W/m 2,0 C 2,3 C 1,6 km/h (1 Bft) 100,00 %
14.12.2016 09:32 2,3 C 98 % 1025,5 hPa 0,0 l/m 0,4 km/h (0 Bft) W-SW 246 0 min 0,000 mm 0,0 UV-I 38 W/m 2,0 C 2,3 C 1,6 km/h (1 Bft) 100,00 %
14.12.2016 09:34 2,3 C 98 % 1025,5 hPa 0,0 l/m 1,0 km/h (0 Bft) W-SW 246 0 min 0,000 mm 0,0 UV-I 33 W/m 2,0 C 2,3 C 1,6 km/h (1 Bft) 100,00 %
14.12.2016 09:36 2,4 C 98 % 1025,6 hPa 0,0 l/m 1,6 km/h (1 Bft) W-SW 246 0 min 0,000 mm 0,0 UV-I 35 W/m 2,1 C 2,4 C 3,2 km/h (1 Bft) 98,00 %
14.12.2016 09:38 2,4 C 98 % 1025,6 hPa 0,0 l/m 2,4 km/h (1 Bft) W-SW 246 0 min 0,000 mm 0,0 UV-I 35 W/m 2,1 C 2,4 C 3,2 km/h (1 Bft) 97,87 %
14.12.2016 09:40 2,4 C 98 % 1025,5 hPa 0,0 l/m 2,7 km/h (1 Bft) W-SW 246 0 min 0,000 mm 0,0 UV-I 39 W/m 2,1 C 2,4 C 4,8 km/h (1 Bft) 100,00 %
14.12.2016 09:42 2,5 C 98 % 1025,5 hPa 0,0 l/m 2,6 km/h (1 Bft) W-SW 246 0 min 0,000 mm 0,0 UV-I 41 W/m 2,2 C 2,5 C 4,8 km/h (1 Bft) 100,00 %
14.12.2016 09:44 2,5 C 98 % 1025,6 hPa 0,0 l/m 3,1 km/h (1 Bft) W-SW 246 0 min 0,000 mm 0,0 UV-I 37 W/m 2,2 C 2,5 C 4,8 km/h (1 Bft) 98,11 %
14.12.2016 09:46 2,6 C 98 % 1025,6 hPa 0,0 l/m 2,8 km/h (1 Bft) W-SW 246 0 min 0,000 mm 0,0 UV-I 37 W/m 2,3 C 2,6 C 4,8 km/h (1 Bft) 100,00 %
14.12.2016 09:48 2,5 C 98 % 1025,7 hPa 0,0 l/m 3,1 km/h (1 Bft) W-SW 246 0 min 0,000 mm 0,0 UV-I 40 W/m 2,2 C 2,5 C 4,8 km/h (1 Bft) 100,00 %
14.12.2016 09:50 2,5 C 98 % 1025,7 hPa 0,0 l/m 3,5 km/h (1 Bft) SW 232 0 min 0,000 mm 0,0 UV-I 45 W/m 2,2 C 2,5 C 6,4 km/h (2 Bft) 100,00 %
14.12.2016 09:52 2,5 C 98 % 1025,7 hPa 0,0 l/m 4,1 km/h (1 Bft) S-SW 210 0 min 0,000 mm 0,0 UV-I 53 W/m 2,2 C 2,5 C 8,0 km/h (2 Bft) 98,21 %
14.12.2016 09:54 2,5 C 98 % 1025,7 hPa 0,0 l/m 4,4 km/h (1 Bft) W-SW 241 0 min 0,000 mm 0,0 UV-I 53 W/m 2,2 C 2,5 C 6,4 km/h (2 Bft) 100,00 %
14.12.2016 09:56 2,6 C 98 % 1025,8 hPa 0,0 l/m 4,6 km/h (1 Bft) W-SW 242 0 min 0,000 mm 0,0 UV-I 47 W/m 2,3 C 2,6 C 8,0 km/h (2 Bft) 100,00 %
14.12.2016 09:58 2,6 C 98 % 1025,7 hPa 0,0 l/m 6,7 km/h (2 Bft) S-SW 207 0 min 0,000 mm 0,0 UV-I 44 W/m 2,3 C 2,3 C 11,3 km/h (2 Bft) 100,00 %
14.12.2016 10:00 2,6 C 98 % 1025,7 hPa 0,0 l/m 5,4 km/h (1 Bft) S-SW 201 0 min 0,025 mm 0,0 UV-I 46 W/m 2,3 C 2,6 C 8,0 km/h (2 Bft) 100,00 %
14.12.2016 10:02 2,6 C 98 % 1025,7 hPa 0,0 l/m 6,3 km/h (2 Bft) SW 229 0 min 0,000 mm 0,0 UV-I 50 W/m 2,3 C 2,6 C 9,7 km/h (2 Bft) 100,00 %
14.12.2016 10:04 2,6 C 98 % 1025,8 hPa 0,0 l/m 3,4 km/h (1 Bft) S-SW 212 0 min 0,000 mm 0,0 UV-I 57 W/m 2,3 C 2,6 C 6,4 km/h (2 Bft) 97,73 %
14.12.2016 10:06 2,6 C 98 % 1025,8 hPa 0,0 l/m 3,9 km/h (1 Bft) SW 227 0 min 0,000 mm 0,0 UV-I 65 W/m 2,3 C 2,6 C 6,4 km/h (2 Bft) 100,00 %
14.12.2016 10:08 2,6 C 98 % 1025,8 hPa 0,0 l/m 2,8 km/h (1 Bft) SW 227 0 min 0,000 mm 0,0 UV-I 67 W/m 2,3 C 2,6 C 4,8 km/h (1 Bft) 98,00 %
14.12.2016 10:10 2,6 C 98 % 1025,8 hPa 0,0 l/m 3,4 km/h (1 Bft) W-SW 257 0 min 0,000 mm 0,0 UV-I 67 W/m 2,3 C 2,6 C 6,4 km/h (2 Bft) 98,00 %
14.12.2016 10:12 2,7 C 97 % 1025,8 hPa 0,0 l/m 2,2 km/h (1 Bft) W-SW 257 0 min 0,000 mm 0,0 UV-I 67 W/m 2,3 C 2,7 C 4,8 km/h (1 Bft) 97,14 %
14.12.2016 10:14 2,7 C 97 % 1025,8 hPa 0,0 l/m 0,4 km/h (0 Bft) W-SW 257 0 min 0,000 mm 0,0 UV-I 67 W/m 2,3 C 2,7 C 3,2 km/h (1 Bft) 95,74 %
14.12.2016 10:16 2,7 C 97 % 1025,8 hPa 0,0 l/m 0,0 km/h (0 Bft) W-SW 257 0 min 0,000 mm 0,0 UV-I 64 W/m 2,3 C 2,7 C 0,0 km/h (0 Bft) 98,11 %
14.12.2016 10:18 2,7 C 98 % 1025,7 hPa 0,0 l/m 0,3 km/h (0 Bft) W-SW 257 0 min 0,000 mm 0,0 UV-I 65 W/m 2,4 C 2,7 C 1,6 km/h (1 Bft) 97,87 %
14.12.2016 10:20 2,8 C 97 % 1025,7 hPa 0,0 l/m 1,9 km/h (1 Bft) W-SW 257 0 min 0,000 mm 0,0 UV-I 69 W/m 2,4 C 2,8 C 4,8 km/h (1 Bft) 97,87 %
14.12.2016 10:22 2,8 C 97 % 1025,6 hPa 0,0 l/m 3,4 km/h (1 Bft) W-SW 257 0 min 0,000 mm 0,0 UV-I 70 W/m 2,4 C 2,8 C 4,8 km/h (1 Bft) 95,74 %
14.12.2016 10:24 2,8 C 97 % 1025,7 hPa 0,0 l/m 3,6 km/h (1 Bft) W-SW 257 0 min 0,000 mm 0,0 UV-I 76 W/m 2,4 C 2,8 C 4,8 km/h (1 Bft) 97,87 %
14.12.2016 10:26 2,9 C 97 % 1025,7 hPa 0,0 l/m 3,2 km/h (1 Bft) W-SW 257 0 min 0,000 mm 0,0 UV-I 87 W/m 2,5 C 2,9 C 4,8 km/h (1 Bft) 95,74 %
14.12.2016 10:28 2,9 C 97 % 1025,7 hPa 0,0 l/m 3,0 km/h (1 Bft) W-SW 258 0 min 0,000 mm 0,0 UV-I 101 W/m 2,5 C 2,9 C 4,8 km/h (1 Bft) 98,00 %
14.12.2016 10:30 2,9 C 97 % 1025,7 hPa 0,0 l/m 4,6 km/h (1 Bft) W 259 0 min 0,000 mm 0,0 UV-I 108 W/m 2,5 C 2,9 C 6,4 km/h (2 Bft) 97,44 %
14.12.2016 10:32 2,9 C 97 % 1025,7 hPa 0,0 l/m 2,7 km/h (1 Bft) W 259 0 min 0,000 mm 0,0 UV-I 107 W/m 2,5 C 2,9 C 4,8 km/h (1 Bft) 95,74 %
14.12.2016 10:34 2,9 C 97 % 1025,6 hPa 0,0 l/m 3,1 km/h (1 Bft) W 259 0 min 0,000 mm 0,0 UV-I 101 W/m 2,5 C 2,9 C 4,8 km/h (1 Bft) 98,00 %
14.12.2016 10:36 3,0 C 97 % 1025,7 hPa 0,0 l/m 2,9 km/h (1 Bft) W 259 0 min 0,000 mm 0,0 UV-I 93 W/m 2,6 C 3,0 C 4,8 km/h (1 Bft) 98,11 %
14.12.2016 10:38 3,1 C 97 % 1025,6 hPa 0,0 l/m 1,6 km/h (1 Bft) W 259 0 min 0,000 mm 0,0 UV-I 89 W/m 2,7 C 3,1 C 4,8 km/h (1 Bft) 97,56 %
14.12.2016 10:40 3,1 C 97 % 1025,6 hPa 0,0 l/m 2,1 km/h (1 Bft) W 259 0 min 0,000 mm 0,0 UV-I 92 W/m 2,7 C 3,1 C 3,2 km/h (1 Bft) 96,00 %
14.12.2016 10:42 3,2 C 97 % 1025,6 hPa 0,0 l/m 0,3 km/h (0 Bft) W 259 0 min 0,000 mm 0,0 UV-I 92 W/m 2,8 C 3,2 C 1,6 km/h (1 Bft) 100,00 %
14.12.2016 10:44 3,3 C 97 % 1025,6 hPa 0,0 l/m 0,1 km/h (0 Bft) W 259 0 min 0,000 mm 0,0 UV-I 95 W/m 2,9 C 3,3 C 1,6 km/h (1 Bft) 100,00 %
14.12.2016 10:46 3,3 C 97 % 1025,6 hPa 0,0 l/m 1,0 km/h (0 Bft) W 259 0 min 0,000 mm 0,0 UV-I 87 W/m 2,9 C 3,3 C 3,2 km/h (1 Bft) 100,00 %
14.12.2016 10:48 3,3 C 97 % 1025,6 hPa 0,0 l/m 1,4 km/h (1 Bft) W 259 0 min 0,000 mm 0,0 UV-I 80 W/m 2,9 C 3,3 C 3,2 km/h (1 Bft) 100,00 %
14.12.2016 10:50 3,3 C 96 % 1025,6 hPa 0,0 l/m 2,2 km/h (1 Bft) W 277 0 min 0,000 mm 0,0 UV-I 79 W/m 2,7 C 3,3 C 4,8 km/h (1 Bft) 100,00 %
14.12.2016 10:52 3,2 C 96 % 1025,6 hPa 0,0 l/m 2,3 km/h (1 Bft) W-NW 300 0 min 0,000 mm 0,0 UV-I 80 W/m 2,6 C 3,2 C 4,8 km/h (1 Bft) 100,00 %
14.12.2016 10:54 3,2 C 96 % 1025,5 hPa 0,0 l/m 1,0 km/h (0 Bft) W-NW 300 0 min 0,000 mm 0,0 UV-I 93 W/m 2,6 C 3,2 C 3,2 km/h (1 Bft) 100,00 %
14.12.2016 10:56 3,2 C 96 % 1025,5 hPa 0,0 l/m 2,3 km/h (1 Bft) W-NW 300 0 min 0,000 mm 0,0 UV-I 103 W/m 2,6 C 3,2 C 4,8 km/h (1 Bft) 100,00 %
14.12.2016 10:58 3,2 C 96 % 1025,5 hPa 0,0 l/m 3,1 km/h (1 Bft) W-SW 258 0 min 0,000 mm 0,0 UV-I 104 W/m 2,6 C 3,2 C 4,8 km/h (1 Bft) 100,00 %
14.12.2016 11:00 3,2 C 96 % 1025,4 hPa 0,0 l/m 2,2 km/h (1 Bft) W 269 0 min 0,026 mm 0,0 UV-I 98 W/m 2,6 C 3,2 C 3,2 km/h (1 Bft) 100,00 %
14.12.2016 11:02 3,3 C 96 % 1025,4 hPa 0,0 l/m 1,4 km/h (1 Bft) W 269 0 min 0,000 mm 0,0 UV-I 89 W/m 2,7 C 3,3 C 3,2 km/h (1 Bft) 100,00 %
14.12.2016 11:04 3,3 C 96 % 1025,4 hPa 0,0 l/m 3,8 km/h (1 Bft) W-SW 254 0 min 0,000 mm 0,0 UV-I 83 W/m 2,7 C 3,3 C 4,8 km/h (1 Bft) 100,00 %
14.12.2016 11:06 3,3 C 96 % 1025,4 hPa 0,0 l/m 2,7 km/h (1 Bft) W 262 0 min 0,000 mm 0,0 UV-I 87 W/m 2,7 C 3,3 C 4,8 km/h (1 Bft) 100,00 %
14.12.2016 11:08 3,4 C 96 % 1025,4 hPa 0,0 l/m 3,8 km/h (1 Bft) W 269 0 min 0,000 mm 0,0 UV-I 87 W/m 2,8 C 3,4 C 6,4 km/h (2 Bft) 100,00 %
14.12.2016 11:10 3,4 C 96 % 1025,3 hPa 0,0 l/m 3,4 km/h (1 Bft) W 272 0 min 0,000 mm 0,0 UV-I 84 W/m 2,8 C 3,4 C 4,8 km/h (1 Bft) 100,00 %
14.12.2016 11:12 3,4 C 96 % 1025,3 hPa 0,0 l/m 2,7 km/h (1 Bft) W 272 0 min 0,000 mm 0,0 UV-I 79 W/m 2,8 C 3,4 C 4,8 km/h (1 Bft) 100,00 %
14.12.2016 11:14 3,4 C 96 % 1025,4 hPa 0,0 l/m 4,7 km/h (1 Bft) W 259 0 min 0,000 mm 0,0 UV-I 80 W/m 2,8 C 3,4 C 6,4 km/h (2 Bft) 100,00 %
14.12.2016 11:16 3,4 C 96 % 1025,5 hPa 0,0 l/m 2,9 km/h (1 Bft) W 259 0 min 0,000 mm 0,0 UV-I 85 W/m 2,8 C 3,4 C 4,8 km/h (1 Bft) 100,00 %
14.12.2016 11:18 3,4 C 96 % 1025,5 hPa 0,0 l/m 2,3 km/h (1 Bft) W 263 0 min 0,000 mm 0,0 UV-I 90 W/m 2,8 C 3,4 C 3,2 km/h (1 Bft) 100,00 %
14.12.2016 11:20 3,4 C 96 % 1025,5 hPa 0,0 l/m 2,2 km/h (1 Bft) W 273 0 min 0,000 mm 0,0 UV-I 86 W/m 2,8 C 3,4 C 4,8 km/h (1 Bft) 100,00 %
14.12.2016 11:22 3,5 C 96 % 1025,5 hPa 0,0 l/m 0,3 km/h (0 Bft) W 273 0 min 0,000 mm 0,0 UV-I 80 W/m 2,9 C 3,5 C 1,6 km/h (1 Bft) 100,00 %
14.12.2016 11:24 3,5 C 95 % 1025,5 hPa 0,0 l/m 1,5 km/h (1 Bft) W 273 0 min 0,000 mm 0,0 UV-I 83 W/m 2,8 C 3,5 C 3,2 km/h (1 Bft) 100,00 %
14.12.2016 11:26 3,5 C 96 % 1025,5 hPa 0,0 l/m 2,8 km/h (1 Bft) W 274 0 min 0,000 mm 0,0 UV-I 84 W/m 2,9 C 3,5 C 4,8 km/h (1 Bft) 100,00 %
14.12.2016 11:28 3,5 C 95 % 1025,4 hPa 0,0 l/m 2,4 km/h (1 Bft) W 277 0 min 0,000 mm 0,0 UV-I 83 W/m 2,8 C 3,5 C 6,4 km/h (2 Bft) 100,00 %
14.12.2016 11:30 3,6 C 95 % 1025,4 hPa 0,0 l/m 0,8 km/h (0 Bft) W 277 0 min 0,000 mm 0,0 UV-I 83 W/m 2,9 C 3,6 C 3,2 km/h (1 Bft) 97,37 %
14.12.2016 11:32 3,6 C 95 % 1025,4 hPa 0,0 l/m 1,9 km/h (1 Bft) W 277 0 min 0,000 mm 0,0 UV-I 82 W/m 2,9 C 3,6 C 3,2 km/h (1 Bft) 98,00 %
14.12.2016 11:34 3,6 C 95 % 1025,4 hPa 0,0 l/m 2,4 km/h (1 Bft) N-NW 330 0 min 0,000 mm 0,0 UV-I 84 W/m 2,9 C 3,6 C 6,4 km/h (2 Bft) 100,00 %
14.12.2016 11:36 3,6 C 95 % 1025,4 hPa 0,0 l/m 3,9 km/h (1 Bft) NW 306 0 min 0,000 mm 0,0 UV-I 90 W/m 2,9 C 3,6 C 6,4 km/h (2 Bft) 98,11 %
14.12.2016 11:38 3,6 C 95 % 1025,4 hPa 0,0 l/m 3,7 km/h (1 Bft) W-NW 284 0 min 0,000 mm 0,0 UV-I 94 W/m 2,9 C 3,6 C 4,8 km/h (1 Bft) 100,00 %
14.12.2016 11:40 3,6 C 95 % 1025,4 hPa 0,0 l/m 4,5 km/h (1 Bft) W 263 0 min 0,000 mm 0,0 UV-I 99 W/m 2,9 C 3,6 C 6,4 km/h (2 Bft) 100,00 %
14.12.2016 11:42 3,7 C 95 % 1025,4 hPa 0,0 l/m 4,1 km/h (1 Bft) W 274 0 min 0,000 mm 0,0 UV-I 95 W/m 3,0 C 3,7 C 9,7 km/h (2 Bft) 100,00 %
14.12.2016 11:44 3,7 C 95 % 1025,4 hPa 0,0 l/m 4,0 km/h (1 Bft) W 279 0 min 0,000 mm 0,0 UV-I 104 W/m 3,0 C 3,7 C 9,7 km/h (2 Bft) 100,00 %
14.12.2016 11:46 3,7 C 95 % 1025,3 hPa 0,0 l/m 4,0 km/h (1 Bft) W 267 0 min 0,000 mm 0,0 UV-I 112 W/m 3,0 C 3,7 C 6,4 km/h (2 Bft) 100,00 %
14.12.2016 11:48 3,7 C 94 % 1025,3 hPa 0,0 l/m 4,8 km/h (1 Bft) W 279 0 min 0,000 mm 0,0 UV-I 112 W/m 2,8 C 3,7 C 9,7 km/h (2 Bft) 100,00 %
14.12.2016 11:50 3,8 C 94 % 1025,4 hPa 0,0 l/m 2,4 km/h (1 Bft) W 271 0 min 0,000 mm 0,0 UV-I 111 W/m 2,9 C 3,8 C 6,4 km/h (2 Bft) 98,00 %
14.12.2016 11:52 3,8 C 94 % 1025,4 hPa 0,0 l/m 2,5 km/h (1 Bft) W-NW 284 0 min 0,000 mm 0,0 UV-I 107 W/m 2,9 C 3,8 C 6,4 km/h (2 Bft) 100,00 %
14.12.2016 11:54 3,8 C 94 % 1025,4 hPa 0,0 l/m 3,1 km/h (1 Bft) W 278 0 min 0,000 mm 0,0 UV-I 103 W/m 2,9 C 3,8 C 6,4 km/h (2 Bft) 98,00 %
14.12.2016 11:56 3,8 C 94 % 1025,4 hPa 0,0 l/m 3,6 km/h (1 Bft) W 274 0 min 0,000 mm 0,0 UV-I 103 W/m 2,9 C 3,8 C 6,4 km/h (2 Bft) 97,87 %
14.12.2016 11:58 3,8 C 94 % 1025,4 hPa 0,0 l/m 1,6 km/h (1 Bft) W 275 0 min 0,000 mm 0,0 UV-I 104 W/m 2,9 C 3,8 C 4,8 km/h (1 Bft) 97,37 %
14.12.2016 12:00 3,8 C 94 % 1025,4 hPa 0,0 l/m 1,6 km/h (1 Bft) W 275 0 min 0,025 mm 0,0 UV-I 108 W/m 2,9 C 3,8 C 3,2 km/h (1 Bft) 100,00 %
14.12.2016 12:02 3,9 C 94 % 1025,4 hPa 0,0 l/m 0,9 km/h (0 Bft) W 275 0 min 0,000 mm 0,0 UV-I 112 W/m 3,0 C 3,9 C 3,2 km/h (1 Bft) 97,56 %
14.12.2016 12:04 3,9 C 94 % 1025,4 hPa 0,0 l/m 1,8 km/h (1 Bft) W 280 0 min 0,000 mm 0,0 UV-I 118 W/m 3,0 C 3,9 C 4,8 km/h (1 Bft) 100,00 %
14.12.2016 12:06 3,9 C 94 % 1025,3 hPa 0,0 l/m 1,5 km/h (1 Bft) W 281 0 min 0,000 mm 0,0 UV-I 128 W/m 3,0 C 3,9 C 3,2 km/h (1 Bft) 98,00 %
14.12.2016 12:08 4,0 C 94 % 1025,3 hPa 0,0 l/m 1,7 km/h (1 Bft) W-NW 285 0 min 0,000 mm 0,0 UV-I 141 W/m 3,1 C 4,0 C 4,8 km/h (1 Bft) 100,00 %
14.12.2016 12:10 4,1 C 94 % 1025,4 hPa 0,0 l/m 0,1 km/h (0 Bft) W-NW 285 0 min 0,000 mm 0,0 UV-I 140 W/m 3,2 C 4,1 C 1,6 km/h (1 Bft) 98,00 %
14.12.2016 12:12 4,1 C 94 % 1025,4 hPa 0,0 l/m 0,0 km/h (0 Bft) W-NW 285 0 min 0,000 mm 0,0 UV-I 148 W/m 3,2 C 4,1 C 1,6 km/h (1 Bft) 98,00 %
14.12.2016 12:14 4,1 C 94 % 1025,4 hPa 0,0 l/m 2,2 km/h (1 Bft) W-NW 285 0 min 0,000 mm 0,0 UV-I 162 W/m 3,2 C 4,1 C 3,2 km/h (1 Bft) 97,87 %
14.12.2016 12:16 4,2 C 94 % 1025,3 hPa 0,0 l/m 0,5 km/h (0 Bft) W-NW 285 0 min 0,000 mm 0,0 UV-I 161 W/m 3,3 C 4,2 C 1,6 km/h (1 Bft) 97,56 %
14.12.2016 12:18 4,2 C 94 % 1025,3 hPa 0,0 l/m 1,4 km/h (1 Bft) W-NW 285 0 min 0,000 mm 0,0 UV-I 156 W/m 3,3 C 4,2 C 3,2 km/h (1 Bft) 98,11 %
14.12.2016 12:20 4,2 C 94 % 1025,3 hPa 0,0 l/m 4,3 km/h (1 Bft) W-NW 286 0 min 0,000 mm 0,0 UV-I 157 W/m 3,3 C 4,2 C 9,7 km/h (2 Bft) 97,62 %
14.12.2016 12:22 4,2 C 93 % 1025,3 hPa 0,0 l/m 4,0 km/h (1 Bft) W-NW 287 0 min 0,000 mm 0,0 UV-I 144 W/m 3,2 C 4,2 C 6,4 km/h (2 Bft) 96,23 %
14.12.2016 12:24 4,2 C 93 % 1025,3 hPa 0,0 l/m 1,9 km/h (1 Bft) W-NW 288 0 min 0,000 mm 0,0 UV-I 128 W/m 3,2 C 4,2 C 4,8 km/h (1 Bft) 97,87 %
14.12.2016 12:26 4,2 C 93 % 1025,3 hPa 0,0 l/m 1,1 km/h (1 Bft) W-NW 288 0 min 0,000 mm 0,0 UV-I 116 W/m 3,2 C 4,2 C 3,2 km/h (1 Bft) 95,74 %
14.12.2016 12:28 4,3 C 93 % 1025,3 hPa 0,0 l/m 2,2 km/h (1 Bft) W-NW 288 0 min 0,000 mm 0,0 UV-I 113 W/m 3,3 C 4,3 C 4,8 km/h (1 Bft) 97,22 %
14.12.2016 12:30 4,3 C 93 % 1025,3 hPa 0,0 l/m 0,0 km/h (0 Bft) W-NW 288 0 min 0,000 mm 0,0 UV-I 122 W/m 3,3 C 4,3 C 0,0 km/h (0 Bft) 98,00 %
14.12.2016 12:32 4,3 C 93 % 1025,3 hPa 0,0 l/m 1,3 km/h (1 Bft) W-NW 292 0 min 0,000 mm 0,0 UV-I 133 W/m 3,3 C 4,3 C 3,2 km/h (1 Bft) 98,11 %
14.12.2016 12:34 4,4 C 93 % 1025,3 hPa 0,0 l/m 0,9 km/h (0 Bft) W-NW 292 0 min 0,000 mm 0,0 UV-I 144 W/m 3,4 C 4,4 C 3,2 km/h (1 Bft) 97,56 %
14.12.2016 12:36 4,4 C 93 % 1025,3 hPa 0,0 l/m 0,0 km/h (0 Bft) W-NW 292 0 min 0,000 mm 0,0 UV-I 148 W/m 3,4 C 4,4 C 0,0 km/h (0 Bft) 98,21 %
14.12.2016 12:38 4,5 C 93 % 1025,2 hPa 0,0 l/m 0,1 km/h (0 Bft) W-NW 292 0 min 0,000 mm 0,0 UV-I 144 W/m 3,5 C 4,5 C 1,6 km/h (1 Bft) 97,87 %
14.12.2016 12:40 4,5 C 92 % 1025,2 hPa 0,0 l/m 1,3 km/h (1 Bft) W-NW 292 0 min 0,000 mm 0,0 UV-I 136 W/m 3,3 C 4,5 C 3,2 km/h (1 Bft) 95,74 %
14.12.2016 12:42 4,6 C 92 % 1025,3 hPa 0,0 l/m 0,7 km/h (0 Bft) W-NW 292 0 min 0,000 mm 0,0 UV-I 140 W/m 3,4 C 4,6 C 3,2 km/h (1 Bft) 97,37 %
14.12.2016 12:44 4,6 C 92 % 1025,3 hPa 0,0 l/m 2,5 km/h (1 Bft) W-NW 296 0 min 0,000 mm 0,0 UV-I 139 W/m 3,4 C 4,6 C 3,2 km/h (1 Bft) 97,87 %
14.12.2016 12:46 4,7 C 92 % 1025,3 hPa 0,0 l/m 0,5 km/h (0 Bft) W-NW 298 0 min 0,000 mm 0,0 UV-I 110 W/m 3,5 C 4,7 C 3,2 km/h (1 Bft) 100,00 %
14.12.2016 12:48 4,6 C 92 % 1025,4 hPa 0,0 l/m 1,2 km/h (1 Bft) NW 307 0 min 0,000 mm 0,0 UV-I 91 W/m 3,4 C 4,6 C 3,2 km/h (1 Bft) 97,56 %
14.12.2016 12:50 4,6 C 92 % 1025,4 hPa 0,0 l/m 1,2 km/h (1 Bft) NW 308 0 min 0,000 mm 0,0 UV-I 80 W/m 3,4 C 4,6 C 3,2 km/h (1 Bft) 96,23 %
14.12.2016 12:52 4,6 C 92 % 1025,4 hPa 0,0 l/m 0,9 km/h (0 Bft) NW 308 0 min 0,000 mm 0,0 UV-I 82 W/m 3,4 C 4,6 C 3,2 km/h (1 Bft) 97,87 %
14.12.2016 12:54 4,6 C 92 % 1025,3 hPa 0,0 l/m 0,2 km/h (0 Bft) NW 308 0 min 0,000 mm 0,0 UV-I 93 W/m 3,4 C 4,6 C 1,6 km/h (1 Bft) 100,00 %
14.12.2016 12:56 4,6 C 92 % 1025,3 hPa 0,0 l/m 0,3 km/h (0 Bft) NW 308 0 min 0,000 mm 0,0 UV-I 105 W/m 3,4 C 4,6 C 1,6 km/h (1 Bft) 100,00 %
14.12.2016 12:58 4,6 C 92 % 1025,3 hPa 0,0 l/m 0,1 km/h (0 Bft) NW 308 0 min 0,000 mm 0,0 UV-I 129 W/m 3,4 C 4,6 C 1,6 km/h (1 Bft) 97,87 %
14.12.2016 13:00 4,6 C 92 % 1025,3 hPa 0,0 l/m 1,6 km/h (1 Bft) NW 308 0 min 0,051 mm 0,0 UV-I 151 W/m 3,4 C 4,6 C 3,2 km/h (1 Bft) 100,00 %
14.12.2016 13:02 4,7 C 92 % 1025,3 hPa 0,0 l/m 1,4 km/h (1 Bft) NW 308 0 min 0,000 mm 0,0 UV-I 158 W/m 3,5 C 4,7 C 3,2 km/h (1 Bft) 100,00 %
14.12.2016 13:04 4,7 C 92 % 1025,3 hPa 0,0 l/m 1,2 km/h (1 Bft) NW 308 0 min 0,000 mm 0,0 UV-I 151 W/m 3,5 C 4,7 C 4,8 km/h (1 Bft) 94,74 %
14.12.2016 13:06 4,7 C 92 % 1025,2 hPa 0,0 l/m 3,2 km/h (1 Bft) NW 304 0 min 0,000 mm 0,0 UV-I 145 W/m 3,5 C 4,7 C 4,8 km/h (1 Bft) 100,00 %
14.12.2016 13:08 4,7 C 91 % 1025,2 hPa 0,0 l/m 2,7 km/h (1 Bft) NW 304 0 min 0,000 mm 0,0 UV-I 144 W/m 3,4 C 4,7 C 3,2 km/h (1 Bft) 100,00 %
14.12.2016 13:10 4,7 C 91 % 1025,2 hPa 0,0 l/m 1,6 km/h (1 Bft) NW 304 0 min 0,000 mm 0,0 UV-I 146 W/m 3,4 C 4,7 C 3,2 km/h (1 Bft) 100,00 %
14.12.2016 13:12 4,7 C 91 % 1025,1 hPa 0,0 l/m 1,7 km/h (1 Bft) NW 304 0 min 0,000 mm 0,0 UV-I 140 W/m 3,4 C 4,7 C 3,2 km/h (1 Bft) 100,00 %
14.12.2016 13:14 4,8 C 91 % 1025,2 hPa 0,0 l/m 0,9 km/h (0 Bft) NW 304 0 min 0,000 mm 0,0 UV-I 134 W/m 3,5 C 4,8 C 3,2 km/h (1 Bft) 100,00 %
14.12.2016 13:16 4,8 C 91 % 1025,2 hPa 0,0 l/m 0,1 km/h (0 Bft) NW 304 0 min 0,000 mm 0,0 UV-I 125 W/m 3,5 C 4,8 C 1,6 km/h (1 Bft) 100,00 %
14.12.2016 13:18 4,9 C 91 % 1025,2 hPa 0,0 l/m 0,1 km/h (0 Bft) NW 304 0 min 0,000 mm 0,0 UV-I 100 W/m 3,6 C 4,9 C 1,6 km/h (1 Bft) 100,00 %
14.12.2016 13:20 4,9 C 91 % 1025,1 hPa 0,0 l/m 0,7 km/h (0 Bft) NW 304 0 min 0,000 mm 0,0 UV-I 87 W/m 3,6 C 4,9 C 3,2 km/h (1 Bft) 100,00 %
14.12.2016 13:22 4,9 C 91 % 1025,1 hPa 0,0 l/m 0,3 km/h (0 Bft) NW 304 0 min 0,000 mm 0,0 UV-I 84 W/m 3,6 C 4,9 C 1,6 km/h (1 Bft) 100,00 %
14.12.2016 13:24 4,9 C 91 % 1025,2 hPa 0,0 l/m 0,2 km/h (0 Bft) NW 304 0 min 0,000 mm 0,0 UV-I 83 W/m 3,6 C 4,9 C 1,6 km/h (1 Bft) 97,87 %
14.12.2016 13:26 4,9 C 91 % 1025,2 hPa 0,0 l/m 1,5 km/h (1 Bft) NW 304 0 min 0,000 mm 0,0 UV-I 82 W/m 3,6 C 4,9 C 3,2 km/h (1 Bft) 100,00 %
14.12.2016 13:28 4,9 C 91 % 1025,2 hPa 0,0 l/m 0,8 km/h (0 Bft) NW 304 0 min 0,000 mm 0,0 UV-I 85 W/m 3,6 C 4,9 C 3,2 km/h (1 Bft) 98,00 %
14.12.2016 13:30 4,9 C 91 % 1025,2 hPa 0,0 l/m 0,8 km/h (0 Bft) NW 304 0 min 0,000 mm 0,0 UV-I 88 W/m 3,6 C 4,9 C 3,2 km/h (1 Bft) 97,73 %
14.12.2016 13:32 4,9 C 91 % 1025,2 hPa 0,0 l/m 1,8 km/h (1 Bft) W-NW 302 0 min 0,000 mm 0,0 UV-I 81 W/m 3,6 C 4,9 C 4,8 km/h (1 Bft) 100,00 %
14.12.2016 13:34 4,9 C 91 % 1025,2 hPa 0,0 l/m 3,4 km/h (1 Bft) W 277 0 min 0,000 mm 0,0 UV-I 77 W/m 3,6 C 4,9 C 6,4 km/h (2 Bft) 98,00 %
14.12.2016 13:36 4,9 C 91 % 1025,3 hPa 0,0 l/m 1,8 km/h (1 Bft) W-NW 291 0 min 0,000 mm 0,0 UV-I 77 W/m 3,6 C 4,9 C 4,8 km/h (1 Bft) 100,00 %
14.12.2016 13:38 4,9 C 91 % 1025,3 hPa 0,0 l/m 0,5 km/h (0 Bft) W-NW 291 0 min 0,000 mm 0,0 UV-I 78 W/m 3,6 C 4,9 C 4,8 km/h (1 Bft) 100,00 %
14.12.2016 13:40 4,9 C 91 % 1025,3 hPa 0,0 l/m 2,8 km/h (1 Bft) W 280 0 min 0,000 mm 0,0 UV-I 75 W/m 3,6 C 4,9 C 4,8 km/h (1 Bft) 100,00 %
14.12.2016 13:42 4,9 C 91 % 1025,2 hPa 0,0 l/m 1,1 km/h (1 Bft) W 280 0 min 0,000 mm 0,0 UV-I 73 W/m 3,6 C 4,9 C 3,2 km/h (1 Bft) 97,87 %
14.12.2016 13:44 4,9 C 90 % 1025,2 hPa 0,0 l/m 2,4 km/h (1 Bft) W-NW 282 0 min 0,000 mm 0,0 UV-I 80 W/m 3,4 C 4,9 C 4,8 km/h (1 Bft) 100,00 %
14.12.2016 13:46 4,8 C 90 % 1025,2 hPa 0,0 l/m 2,7 km/h (1 Bft) W-NW 282 0 min 0,000 mm 0,0 UV-I 92 W/m 3,3 C 4,8 C 4,8 km/h (1 Bft) 100,00 %
14.12.2016 13:48 4,9 C 90 % 1025,1 hPa 0,0 l/m 3,4 km/h (1 Bft) W-NW 282 0 min 0,000 mm 0,0 UV-I 104 W/m 3,4 C 4,9 C 4,8 km/h (1 Bft) 100,00 %
14.12.2016 13:50 4,9 C 90 % 1025,1 hPa 0,0 l/m 3,5 km/h (1 Bft) W 281 0 min 0,000 mm 0,0 UV-I 117 W/m 3,4 C 4,9 C 4,8 km/h (1 Bft) 100,00 %
14.12.2016 13:52 5,0 C 90 % 1025,0 hPa 0,0 l/m 4,2 km/h (1 Bft) W 269 0 min 0,000 mm 0,0 UV-I 131 W/m 3,5 C 5,0 C 6,4 km/h (2 Bft) 100,00 %
14.12.2016 13:54 5,0 C 89 % 1025,1 hPa 0,0 l/m 2,8 km/h (1 Bft) W 275 2 min 0,000 mm 0,0 UV-I 147 W/m 3,3 C 5,0 C 4,8 km/h (1 Bft) 97,87 %
14.12.2016 13:56 5,1 C 89 % 1025,1 hPa 0,0 l/m 2,0 km/h (1 Bft) W 275 2 min 0,000 mm 0,0 UV-I 142 W/m 3,4 C 5,1 C 4,8 km/h (1 Bft) 100,00 %
14.12.2016 13:58 5,1 C 89 % 1025,1 hPa 0,0 l/m 2,9 km/h (1 Bft) W 274 0 min 0,000 mm 0,0 UV-I 114 W/m 3,4 C 5,1 C 4,8 km/h (1 Bft) 100,00 %
14.12.2016 14:00 5,1 C 89 % 1025,1 hPa 0,0 l/m 3,6 km/h (1 Bft) W 274 0 min 0,000 mm 0,0 UV-I 96 W/m 3,4 C 5,1 C 4,8 km/h (1 Bft) 100,00 %
14.12.2016 14:02 5,1 C 89 % 1025,1 hPa 0,0 l/m 2,4 km/h (1 Bft) W 277 0 min 0,051 mm 0,0 UV-I 99 W/m 3,4 C 5,1 C 3,2 km/h (1 Bft) 100,00 %
14.12.2016 14:04 5,1 C 89 % 1025,1 hPa 0,0 l/m 3,7 km/h (1 Bft) W 277 0 min 0,000 mm 0,0 UV-I 122 W/m 3,4 C 5,1 C 4,8 km/h (1 Bft) 100,00 %
14.12.2016 14:06 5,1 C 88 % 1025,1 hPa 0,0 l/m 2,5 km/h (1 Bft) W 277 2 min 0,000 mm 0,0 UV-I 154 W/m 3,3 C 5,1 C 4,8 km/h (1 Bft) 100,00 %
14.12.2016 14:08 5,2 C 88 % 1025,1 hPa 0,0 l/m 2,5 km/h (1 Bft) W 277 2 min 0,000 mm 0,0 UV-I 134 W/m 3,4 C 5,2 C 4,8 km/h (1 Bft) 100,00 %
14.12.2016 14:10 5,2 C 88 % 1025,0 hPa 0,0 l/m 1,6 km/h (1 Bft) W 277 0 min 0,000 mm 0,0 UV-I 111 W/m 3,4 C 5,2 C 4,8 km/h (1 Bft) 100,00 %
14.12.2016 14:12 5,2 C 88 % 1025,0 hPa 0,0 l/m 2,5 km/h (1 Bft) W 277 0 min 0,000 mm 0,0 UV-I 102 W/m 3,4 C 5,2 C 4,8 km/h (1 Bft) 97,56 %
14.12.2016 14:14 5,2 C 89 % 1025,0 hPa 0,0 l/m 2,4 km/h (1 Bft) W 278 0 min 0,000 mm 0,0 UV-I 105 W/m 3,5 C 5,2 C 3,2 km/h (1 Bft) 98,00 %
14.12.2016 14:16 5,3 C 88 % 1025,0 hPa 0,0 l/m 1,6 km/h (1 Bft) W 278 0 min 0,000 mm 0,0 UV-I 115 W/m 3,5 C 5,3 C 3,2 km/h (1 Bft) 100,00 %
14.12.2016 14:18 5,3 C 88 % 1025,0 hPa 0,0 l/m 1,6 km/h (1 Bft) W 278 2 min 0,000 mm 0,0 UV-I 120 W/m 3,5 C 5,3 C 4,8 km/h (1 Bft) 100,00 %
14.12.2016 14:20 5,3 C 88 % 1024,9 hPa 0,0 l/m 2,7 km/h (1 Bft) W 277 2 min 0,000 mm 0,0 UV-I 123 W/m 3,5 C 5,3 C 4,8 km/h (1 Bft) 98,00 %
14.12.2016 14:22 5,3 C 88 % 1024,9 hPa 0,0 l/m 2,1 km/h (1 Bft) W 277 2 min 0,000 mm 0,0 UV-I 122 W/m 3,5 C 5,3 C 3,2 km/h (1 Bft) 98,00 %
14.12.2016 14:24 5,4 C 89 % 1025,0 hPa 0,0 l/m 4,0 km/h (1 Bft) W 264 0 min 0,000 mm 0,0 UV-I 112 W/m 3,7 C 5,4 C 6,4 km/h (2 Bft) 95,74 %
14.12.2016 14:26 5,4 C 88 % 1024,9 hPa 0,0 l/m 5,3 km/h (1 Bft) W-SW 246 0 min 0,000 mm 0,0 UV-I 98 W/m 3,6 C 5,4 C 8,0 km/h (2 Bft) 98,00 %
14.12.2016 14:28 5,3 C 87 % 1024,9 hPa 0,0 l/m 5,4 km/h (1 Bft) W 263 0 min 0,000 mm 0,0 UV-I 90 W/m 3,3 C 5,3 C 8,0 km/h (2 Bft) 97,22 %
14.12.2016 14:30 5,3 C 87 % 1024,9 hPa 0,0 l/m 6,1 km/h (2 Bft) W-SW 248 0 min 0,000 mm 0,0 UV-I 78 W/m 3,3 C 5,3 C 9,7 km/h (2 Bft) 98,11 %
14.12.2016 14:32 5,3 C 87 % 1024,9 hPa 0,0 l/m 5,2 km/h (1 Bft) W 275 0 min 0,000 mm 0,0 UV-I 75 W/m 3,3 C 5,3 C 6,4 km/h (2 Bft) 100,00 %
14.12.2016 14:34 5,3 C 88 % 1024,9 hPa 0,0 l/m 4,8 km/h (1 Bft) W 270 0 min 0,000 mm 0,0 UV-I 74 W/m 3,5 C 5,3 C 9,7 km/h (2 Bft) 96,77 %
14.12.2016 14:36 5,3 C 88 % 1025,0 hPa 0,0 l/m 3,5 km/h (1 Bft) W-SW 258 0 min 0,000 mm 0,0 UV-I 68 W/m 3,5 C 5,3 C 9,7 km/h (2 Bft) 95,74 %
14.12.2016 14:38 5,3 C 88 % 1025,0 hPa 0,0 l/m 3,6 km/h (1 Bft) W 267 0 min 0,000 mm 0,0 UV-I 60 W/m 3,5 C 5,3 C 9,7 km/h (2 Bft) 97,87 %
14.12.2016 14:40 5,3 C 87 % 1025,1 hPa 0,0 l/m 6,4 km/h (2 Bft) W 268 0 min 0,000 mm 0,0 UV-I 54 W/m 3,3 C 5,3 C 12,9 km/h (3 Bft) 98,00 %
14.12.2016 14:42 5,3 C 87 % 1025,1 hPa 0,0 l/m 4,8 km/h (1 Bft) W-SW 253 0 min 0,000 mm 0,0 UV-I 47 W/m 3,3 C 5,3 C 8,0 km/h (2 Bft) 94,00 %
14.12.2016 14:44 5,3 C 87 % 1025,0 hPa 0,0 l/m 4,0 km/h (1 Bft) W 262 0 min 0,000 mm 0,0 UV-I 53 W/m 3,3 C 5,3 C 6,4 km/h (2 Bft) 97,44 %
14.12.2016 14:46 5,2 C 87 % 1025,0 hPa 0,0 l/m 2,1 km/h (1 Bft) W 262 0 min 0,000 mm 0,0 UV-I 50 W/m 3,2 C 5,2 C 4,8 km/h (1 Bft) 98,21 %
14.12.2016 14:48 5,2 C 87 % 1025,1 hPa 0,0 l/m 3,9 km/h (1 Bft) W 277 0 min 0,000 mm 0,0 UV-I 42 W/m 3,2 C 5,2 C 9,7 km/h (2 Bft) 97,56 %
14.12.2016 14:50 5,2 C 88 % 1025,1 hPa 0,0 l/m 0,5 km/h (0 Bft) W 277 0 min 0,000 mm 0,0 UV-I 34 W/m 3,4 C 5,2 C 3,2 km/h (1 Bft) 96,00 %
14.12.2016 14:52 5,2 C 89 % 1025,1 hPa 0,0 l/m 1,1 km/h (1 Bft) W 277 0 min 0,000 mm 0,0 UV-I 32 W/m 3,5 C 5,2 C 3,2 km/h (1 Bft) 97,87 %
14.12.2016 14:54 5,1 C 88 % 1025,1 hPa 0,0 l/m 1,2 km/h (1 Bft) W 279 0 min 0,000 mm 0,0 UV-I 32 W/m 3,3 C 5,1 C 4,8 km/h (1 Bft) 97,37 %
14.12.2016 14:56 5,1 C 88 % 1025,1 hPa 0,0 l/m 0,9 km/h (0 Bft) W 279 0 min 0,000 mm 0,0 UV-I 33 W/m 3,3 C 5,1 C 3,2 km/h (1 Bft) 100,00 %
14.12.2016 14:58 5,0 C 88 % 1025,1 hPa 0,0 l/m 3,0 km/h (1 Bft) W-NW 283 0 min 0,000 mm 0,0 UV-I 32 W/m 3,2 C 5,0 C 6,4 km/h (2 Bft) 100,00 %
14.12.2016 15:00 4,9 C 88 % 1025,1 hPa 0,0 l/m 2,9 km/h (1 Bft) W-NW 285 0 min 0,025 mm 0,0 UV-I 31 W/m 3,1 C 4,9 C 4,8 km/h (1 Bft) 100,00 %
14.12.2016 15:02 4,9 C 88 % 1025,1 hPa 0,0 l/m 1,4 km/h (1 Bft) W-NW 285 0 min 0,000 mm 0,0 UV-I 30 W/m 3,1 C 4,9 C 3,2 km/h (1 Bft) 98,08 %
14.12.2016 15:04 4,9 C 88 % 1025,1 hPa 0,0 l/m 0,5 km/h (0 Bft) W-NW 285 0 min 0,000 mm 0,0 UV-I 31 W/m 3,1 C 4,9 C 1,6 km/h (1 Bft) 100,00 %
14.12.2016 15:06 4,9 C 88 % 1025,1 hPa 0,0 l/m 2,2 km/h (1 Bft) W-NW 285 0 min 0,000 mm 0,0 UV-I 26 W/m 3,1 C 4,9 C 4,8 km/h (1 Bft) 100,00 %
14.12.2016 15:08 4,8 C 88 % 1025,2 hPa 0,0 l/m 0,3 km/h (0 Bft) W-NW 285 0 min 0,000 mm 0,0 UV-I 25 W/m 3,0 C 4,8 C 1,6 km/h (1 Bft) 100,00 %
14.12.2016 15:10 4,8 C 89 % 1025,2 hPa 0,0 l/m 0,0 km/h (0 Bft) W-NW 285 0 min 0,000 mm 0,0 UV-I 23 W/m 3,1 C 4,8 C 1,6 km/h (1 Bft) 100,00 %
14.12.2016 15:12 4,8 C 89 % 1025,1 hPa 0,0 l/m 0,3 km/h (0 Bft) W-NW 285 0 min 0,000 mm 0,0 UV-I 21 W/m 3,1 C 4,8 C 1,6 km/h (1 Bft) 100,00 %
14.12.2016 15:14 4,8 C 89 % 1025,1 hPa 0,0 l/m 0,0 km/h (0 Bft) W-NW 285 0 min 0,000 mm 0,0 UV-I 20 W/m 3,1 C 4,8 C 1,6 km/h (1 Bft) 100,00 %
14.12.2016 15:16 4,8 C 89 % 1025,1 hPa 0,0 l/m 1,1 km/h (1 Bft) W-NW 285 0 min 0,000 mm 0,0 UV-I 19 W/m 3,1 C 4,8 C 3,2 km/h (1 Bft) 95,12 %
14.12.2016 15:18 4,8 C 89 % 1025,2 hPa 0,0 l/m 0,0 km/h (0 Bft) W-NW 285 0 min 0,000 mm 0,0 UV-I 18 W/m 3,1 C 4,8 C 0,0 km/h (0 Bft) 100,00 %
14.12.2016 15:20 4,8 C 89 % 1025,2 hPa 0,0 l/m 0,0 km/h (0 Bft) W-NW 285 0 min 0,000 mm 0,0 UV-I 15 W/m 3,1 C 4,8 C 0,0 km/h (0 Bft) 100,00 %
14.12.2016 15:22 4,8 C 89 % 1025,2 hPa 0,0 l/m 0,0 km/h (0 Bft) W-NW 285 0 min 0,000 mm 0,0 UV-I 14 W/m 3,1 C 4,8 C 0,0 km/h (0 Bft) 100,00 %
14.12.2016 15:24 4,7 C 89 % 1025,3 hPa 0,0 l/m 0,0 km/h (0 Bft) W-NW 285 0 min 0,000 mm 0,0 UV-I 12 W/m 3,0 C 4,7 C 0,0 km/h (0 Bft) 100,00 %
14.12.2016 15:26 4,7 C 89 % 1025,3 hPa 0,0 l/m 0,1 km/h (0 Bft) W-NW 285 0 min 0,000 mm 0,0 UV-I 12 W/m 3,0 C 4,7 C 1,6 km/h (1 Bft) 95,74 %
14.12.2016 15:28 4,7 C 90 % 1025,3 hPa 0,0 l/m 0,2 km/h (0 Bft) W-NW 285 0 min 0,000 mm 0,0 UV-I 12 W/m 3,2 C 4,7 C 1,6 km/h (1 Bft) 100,00 %
14.12.2016 15:30 4,7 C 90 % 1025,3 hPa 0,0 l/m 0,6 km/h (0 Bft) W-NW 286 0 min 0,000 mm 0,0 UV-I 12 W/m 3,2 C 4,7 C 3,2 km/h (1 Bft) 100,00 %
14.12.2016 15:32 4,7 C 90 % 1025,2 hPa 0,0 l/m 1,0 km/h (0 Bft) W-NW 286 0 min 0,000 mm 0,0 UV-I 12 W/m 3,2 C 4,7 C 3,2 km/h (1 Bft) 100,00 %
14.12.2016 15:34 4,6 C 90 % 1025,2 hPa 0,0 l/m 1,1 km/h (1 Bft) NW 314 0 min 0,000 mm 0,0 UV-I 13 W/m 3,1 C 4,6 C 4,8 km/h (1 Bft) 97,87 %
14.12.2016 15:36 4,6 C 90 % 1025,2 hPa 0,0 l/m 0,2 km/h (0 Bft) NW 314 0 min 0,000 mm 0,0 UV-I 12 W/m 3,1 C 4,6 C 1,6 km/h (1 Bft) 100,00 %
14.12.2016 15:38 4,6 C 90 % 1025,2 hPa 0,0 l/m 0,0 km/h (0 Bft) NW 314 0 min 0,000 mm 0,0 UV-I 12 W/m 3,1 C 4,6 C 0,0 km/h (0 Bft) 100,00 %
14.12.2016 15:40 4,6 C 90 % 1025,1 hPa 0,0 l/m 0,7 km/h (0 Bft) NW 314 0 min 0,000 mm 0,0 UV-I 12 W/m 3,1 C 4,6 C 3,2 km/h (1 Bft) 98,11 %
14.12.2016 15:42 4,6 C 90 % 1025,1 hPa 0,0 l/m 0,9 km/h (0 Bft) NW 314 0 min 0,000 mm 0,0 UV-I 12 W/m 3,1 C 4,6 C 3,2 km/h (1 Bft) 100,00 %
14.12.2016 15:44 4,6 C 90 % 1025,1 hPa 0,0 l/m 1,4 km/h (1 Bft) NW 306 0 min 0,000 mm 0,0 UV-I 12 W/m 3,1 C 4,6 C 4,8 km/h (1 Bft) 100,00 %
14.12.2016 15:46 4,6 C 90 % 1025,2 hPa 0,0 l/m 0,1 km/h (0 Bft) NW 306 0 min 0,000 mm 0,0 UV-I 11 W/m 3,1 C 4,6 C 1,6 km/h (1 Bft) 100,00 %
14.12.2016 15:48 4,6 C 90 % 1025,2 hPa 0,0 l/m 0,4 km/h (0 Bft) NW 306 0 min 0,000 mm 0,0 UV-I 10 W/m 3,1 C 4,6 C 1,6 km/h (1 Bft) 100,00 %
14.12.2016 15:50 4,6 C 90 % 1025,2 hPa 0,0 l/m 0,8 km/h (0 Bft) NW 306 0 min 0,000 mm 0,0 UV-I 9 W/m 3,1 C 4,6 C 3,2 km/h (1 Bft) 96,00 %
14.12.2016 15:52 4,6 C 90 % 1025,2 hPa 0,0 l/m 1,0 km/h (0 Bft) NW 306 0 min 0,000 mm 0,0 UV-I 9 W/m 3,1 C 4,6 C 1,6 km/h (1 Bft) 100,00 %
14.12.2016 15:54 4,6 C 90 % 1025,2 hPa 0,0 l/m 1,6 km/h (1 Bft) NW 306 0 min 0,000 mm 0,0 UV-I 9 W/m 3,1 C 4,6 C 3,2 km/h (1 Bft) 97,87 %
14.12.2016 15:56 4,6 C 90 % 1025,2 hPa 0,0 l/m 0,5 km/h (0 Bft) NW 306 0 min 0,000 mm 0,0 UV-I 9 W/m 3,1 C 4,6 C 1,6 km/h (1 Bft) 100,00 %
14.12.2016 15:58 4,6 C 90 % 1025,3 hPa 0,0 l/m 0,8 km/h (0 Bft) NW 306 0 min 0,000 mm 0,0 UV-I 9 W/m 3,1 C 4,6 C 3,2 km/h (1 Bft) 100,00 %
14.12.2016 16:00 4,6 C 90 % 1025,3 hPa 0,0 l/m 0,0 km/h (0 Bft) NW 306 0 min 0,000 mm 0,0 UV-I 8 W/m 3,1 C 4,6 C 0,0 km/h (0 Bft) 100,00 %
14.12.2016 16:02 4,5 C 89 % 1025,3 hPa 0,0 l/m 0,0 km/h (0 Bft) NW 306 0 min 0,000 mm 0,0 UV-I 7 W/m 2,8 C 4,5 C 0,0 km/h (0 Bft) 100,00 %
14.12.2016 16:04 4,5 C 90 % 1025,3 hPa 0,0 l/m 0,3 km/h (0 Bft) NW 306 0 min 0,000 mm 0,0 UV-I 7 W/m 3,0 C 4,5 C 1,6 km/h (1 Bft) 100,00 %
14.12.2016 16:06 4,5 C 90 % 1025,4 hPa 0,0 l/m 0,9 km/h (0 Bft) NW 306 0 min 0,000 mm 0,0 UV-I 7 W/m 3,0 C 4,5 C 1,6 km/h (1 Bft) 97,87 %
14.12.2016 16:08 4,4 C 90 % 1025,4 hPa 0,0 l/m 0,1 km/h (0 Bft) NW 306 0 min 0,000 mm 0,0 UV-I 7 W/m 2,9 C 4,4 C 1,6 km/h (1 Bft) 100,00 %
14.12.2016 16:10 4,4 C 90 % 1025,4 hPa 0,0 l/m 0,7 km/h (0 Bft) NW 306 0 min 0,000 mm 0,0 UV-I 7 W/m 2,9 C 4,4 C 1,6 km/h (1 Bft) 100,00 %
14.12.2016 16:12 4,4 C 90 % 1025,4 hPa 0,0 l/m 0,0 km/h (0 Bft) NW 306 0 min 0,000 mm 0,0 UV-I 5 W/m 2,9 C 4,4 C 0,0 km/h (0 Bft) 100,00 %
14.12.2016 16:14 4,4 C 91 % 1025,4 hPa 0,0 l/m 0,0 km/h (0 Bft) NW 306 0 min 0,000 mm 0,0 UV-I 5 W/m 3,1 C 4,4 C 0,0 km/h (0 Bft) 100,00 %
14.12.2016 16:16 4,3 C 91 % 1025,4 hPa 0,0 l/m 0,0 km/h (0 Bft) NW 306 0 min 0,000 mm 0,0 UV-I 5 W/m 3,0 C 4,3 C 0,0 km/h (0 Bft) 100,00 %
14.12.2016 16:18 4,3 C 92 % 1025,4 hPa 0,0 l/m 0,0 km/h (0 Bft) NW 306 0 min 0,000 mm 0,0 UV-I 5 W/m 3,1 C 4,3 C 0,0 km/h (0 Bft) 100,00 %
14.12.2016 16:20 4,3 C 92 % 1025,5 hPa 0,0 l/m 0,0 km/h (0 Bft) NW 306 0 min 0,000 mm 0,0 UV-I 4 W/m 3,1 C 4,3 C 0,0 km/h (0 Bft) 98,00 %
14.12.2016 16:22 4,3 C 92 % 1025,5 hPa 0,0 l/m 0,0 km/h (0 Bft) NW 306 0 min 0,000 mm 0,0 UV-I 0 W/m 3,1 C 4,3 C 0,0 km/h (0 Bft) 97,44 %
14.12.2016 16:24 4,2 C 93 % 1025,5 hPa 0,0 l/m 0,0 km/h (0 Bft) NW 306 0 min 0,000 mm 0,0 UV-I 0 W/m 3,2 C 4,2 C 0,0 km/h (0 Bft) 100,00 %
14.12.2016 16:26 4,2 C 93 % 1025,4 hPa 0,0 l/m 0,0 km/h (0 Bft) NW 306 0 min 0,000 mm 0,0 UV-I 0 W/m 3,2 C 4,2 C 0,0 km/h (0 Bft) 100,00 %
14.12.2016 16:28 4,2 C 93 % 1025,4 hPa 0,0 l/m 0,3 km/h (0 Bft) NW 306 0 min 0,000 mm 0,0 UV-I 0 W/m 3,2 C 4,2 C 1,6 km/h (1 Bft) 94,00 %
14.12.2016 16:30 4,2 C 93 % 1025,4 hPa 0,0 l/m 0,2 km/h (0 Bft) NW 306 0 min 0,000 mm 0,0 UV-I 0 W/m 3,2 C 4,2 C 1,6 km/h (1 Bft) 97,56 %
14.12.2016 16:32 4,2 C 93 % 1025,5 hPa 0,0 l/m 0,1 km/h (0 Bft) NW 306 0 min 0,000 mm 0,0 UV-I 0 W/m 3,2 C 4,2 C 1,6 km/h (1 Bft) 98,00 %
14.12.2016 16:34 4,2 C 93 % 1025,5 hPa 0,0 l/m 0,4 km/h (0 Bft) NW 306 0 min 0,000 mm 0,0 UV-I 0 W/m 3,2 C 4,2 C 1,6 km/h (1 Bft) 97,87 %
14.12.2016 16:36 4,1 C 93 % 1025,5 hPa 0,0 l/m 1,7 km/h (1 Bft) W-NW 303 0 min 0,000 mm 0,0 UV-I 0 W/m 3,1 C 4,1 C 4,8 km/h (1 Bft) 98,00 %
14.12.2016 16:38 4,2 C 93 % 1025,5 hPa 0,0 l/m 2,2 km/h (1 Bft) W-NW 300 0 min 0,000 mm 0,0 UV-I 0 W/m 3,2 C 4,2 C 4,8 km/h (1 Bft) 97,87 %
14.12.2016 16:40 4,2 C 93 % 1025,5 hPa 0,0 l/m 3,5 km/h (1 Bft) W-NW 290 0 min 0,000 mm 0,0 UV-I 0 W/m 3,2 C 4,2 C 6,4 km/h (2 Bft) 94,00 %
14.12.2016 16:42 4,1 C 93 % 1025,5 hPa 0,0 l/m 2,9 km/h (1 Bft) W-NW 294 0 min 0,000 mm 0,0 UV-I 0 W/m 3,1 C 4,1 C 4,8 km/h (1 Bft) 97,37 %
14.12.2016 16:44 4,2 C 92 % 1025,5 hPa 0,0 l/m 4,8 km/h (1 Bft) W 263 0 min 0,000 mm 0,0 UV-I 0 W/m 3,0 C 4,2 C 9,7 km/h (2 Bft) 96,23 %
14.12.2016 16:46 4,2 C 92 % 1025,4 hPa 0,0 l/m 4,1 km/h (1 Bft) W 267 0 min 0,000 mm 0,0 UV-I 0 W/m 3,0 C 4,2 C 4,8 km/h (1 Bft) 96,00 %
14.12.2016 16:48 4,2 C 92 % 1025,4 hPa 0,0 l/m 5,0 km/h (1 Bft) W 263 0 min 0,000 mm 0,0 UV-I 0 W/m 3,0 C 4,2 C 8,0 km/h (2 Bft) 97,56 %
14.12.2016 16:50 4,2 C 92 % 1025,4 hPa 0,0 l/m 5,2 km/h (1 Bft) W 273 0 min 0,000 mm 0,0 UV-I 0 W/m 3,0 C 4,2 C 6,4 km/h (2 Bft) 98,00 %
14.12.2016 16:52 4,2 C 92 % 1025,4 hPa 0,0 l/m 5,5 km/h (1 Bft) W-SW 256 0 min 0,000 mm 0,0 UV-I 0 W/m 3,0 C 4,2 C 8,0 km/h (2 Bft) 97,37 %
14.12.2016 16:54 4,2 C 92 % 1025,4 hPa 0,0 l/m 7,0 km/h (2 Bft) W 259 0 min 0,000 mm 0,0 UV-I 0 W/m 3,0 C 3,7 C 11,3 km/h (2 Bft) 98,11 %
14.12.2016 16:56 4,2 C 92 % 1025,4 hPa 0,0 l/m 5,8 km/h (2 Bft) W 262 0 min 0,000 mm 0,0 UV-I 0 W/m 3,0 C 4,2 C 11,3 km/h (2 Bft) 98,11 %
14.12.2016 16:58 4,3 C 92 % 1025,5 hPa 0,0 l/m 5,8 km/h (2 Bft) W 261 0 min 0,000 mm 0,0 UV-I 0 W/m 3,1 C 4,3 C 9,7 km/h (2 Bft) 97,37 %
14.12.2016 17:00 4,3 C 92 % 1025,4 hPa 0,0 l/m 4,9 km/h (1 Bft) W-SW 253 0 min 0,000 mm 0,0 UV-I 0 W/m 3,1 C 4,3 C 6,4 km/h (2 Bft) 94,64 %
14.12.2016 17:02 4,3 C 91 % 1025,4 hPa 0,0 l/m 4,9 km/h (1 Bft) W-SW 254 0 min 0,000 mm 0,0 UV-I 0 W/m 3,0 C 4,3 C 6,4 km/h (2 Bft) 100,00 %
14.12.2016 17:04 4,3 C 91 % 1025,5 hPa 0,0 l/m 5,9 km/h (2 Bft) W 280 0 min 0,000 mm 0,0 UV-I 0 W/m 3,0 C 4,3 C 12,9 km/h (3 Bft) 97,01 %
14.12.2016 17:06 4,3 C 91 % 1025,5 hPa 0,0 l/m 4,9 km/h (1 Bft) W 273 0 min 0,000 mm 0,0 UV-I 0 W/m 3,0 C 4,3 C 6,4 km/h (2 Bft) 100,00 %
14.12.2016 17:08 4,4 C 92 % 1025,5 hPa 0,0 l/m 5,1 km/h (1 Bft) W 275 0 min 0,000 mm 0,0 UV-I 0 W/m 3,2 C 4,4 C 9,7 km/h (2 Bft) 98,11 %
14.12.2016 17:10 4,4 C 92 % 1025,6 hPa 0,0 l/m 6,6 km/h (2 Bft) W 268 0 min 0,000 mm 0,0 UV-I 0 W/m 3,2 C 4,2 C 11,3 km/h (2 Bft) 100,00 %
14.12.2016 17:12 4,4 C 92 % 1025,6 hPa 0,0 l/m 6,7 km/h (2 Bft) W 263 0 min 0,000 mm 0,0 UV-I 0 W/m 3,2 C 4,1 C 12,9 km/h (3 Bft) 95,45 %
14.12.2016 17:14 4,4 C 92 % 1025,6 hPa 0,0 l/m 4,4 km/h (1 Bft) W 275 0 min 0,000 mm 0,0 UV-I 0 W/m 3,2 C 4,4 C 6,4 km/h (2 Bft) 100,00 %
14.12.2016 17:16 4,4 C 92 % 1025,6 hPa 0,0 l/m 4,0 km/h (1 Bft) W 281 0 min 0,000 mm 0,0 UV-I 0 W/m 3,2 C 4,4 C 6,4 km/h (2 Bft) 100,00 %
14.12.2016 17:18 4,4 C 92 % 1025,6 hPa 0,0 l/m 4,9 km/h (1 Bft) W-NW 286 0 min 0,000 mm 0,0 UV-I 0 W/m 3,2 C 4,4 C 9,7 km/h (2 Bft) 97,87 %
14.12.2016 17:20 4,5 C 92 % 1025,6 hPa 0,0 l/m 4,9 km/h (1 Bft) W-NW 282 0 min 0,000 mm 0,0 UV-I 0 W/m 3,3 C 4,5 C 9,7 km/h (2 Bft) 100,00 %
14.12.2016 17:22 4,5 C 92 % 1025,6 hPa 0,0 l/m 4,6 km/h (1 Bft) W-NW 286 0 min 0,000 mm 0,0 UV-I 0 W/m 3,3 C 4,5 C 9,7 km/h (2 Bft) 98,00 %
14.12.2016 17:24 4,5 C 92 % 1025,6 hPa 0,0 l/m 3,7 km/h (1 Bft) NW 304 0 min 0,000 mm 0,0 UV-I 0 W/m 3,3 C 4,5 C 6,4 km/h (2 Bft) 100,00 %
14.12.2016 17:26 4,5 C 92 % 1025,6 hPa 0,0 l/m 3,9 km/h (1 Bft) W 281 0 min 0,000 mm 0,0 UV-I 0 W/m 3,3 C 4,5 C 6,4 km/h (2 Bft) 100,00 %
14.12.2016 17:28 4,5 C 92 % 1025,6 hPa 0,0 l/m 3,7 km/h (1 Bft) W-NW 284 0 min 0,000 mm 0,0 UV-I 0 W/m 3,3 C 4,5 C 6,4 km/h (2 Bft) 100,00 %
14.12.2016 17:30 4,5 C 92 % 1025,6 hPa 0,0 l/m 3,9 km/h (1 Bft) W-NW 286 0 min 0,000 mm 0,0 UV-I 0 W/m 3,3 C 4,5 C 6,4 km/h (2 Bft) 100,00 %
14.12.2016 17:32 4,5 C 92 % 1025,6 hPa 0,0 l/m 4,1 km/h (1 Bft) W 278 0 min 0,000 mm 0,0 UV-I 0 W/m 3,3 C 4,5 C 6,4 km/h (2 Bft) 100,00 %
14.12.2016 17:34 4,5 C 92 % 1025,7 hPa 0,0 l/m 1,6 km/h (1 Bft) W 278 0 min 0,000 mm 0,0 UV-I 0 W/m 3,3 C 4,5 C 3,2 km/h (1 Bft) 96,43 %
14.12.2016 17:36 4,5 C 92 % 1025,7 hPa 0,0 l/m 2,1 km/h (1 Bft) W 281 0 min 0,000 mm 0,0 UV-I 0 W/m 3,3 C 4,5 C 3,2 km/h (1 Bft) 98,00 %
14.12.2016 17:38 4,5 C 92 % 1025,7 hPa 0,0 l/m 3,5 km/h (1 Bft) W-NW 284 0 min 0,000 mm 0,0 UV-I 0 W/m 3,3 C 4,5 C 6,4 km/h (2 Bft) 100,00 %
14.12.2016 17:40 4,5 C 92 % 1025,7 hPa 0,0 l/m 2,2 km/h (1 Bft) W-NW 288 0 min 0,000 mm 0,0 UV-I 0 W/m 3,3 C 4,5 C 6,4 km/h (2 Bft) 100,00 %
14.12.2016 17:42 4,5 C 92 % 1025,7 hPa 0,0 l/m 1,0 km/h (0 Bft) W-NW 288 0 min 0,000 mm 0,0 UV-I 0 W/m 3,3 C 4,5 C 1,6 km/h (1 Bft) 100,00 %
14.12.2016 17:44 4,4 C 92 % 1025,8 hPa 0,0 l/m 1,8 km/h (1 Bft) W-NW 288 0 min 0,000 mm 0,0 UV-I 0 W/m 3,2 C 4,4 C 4,8 km/h (1 Bft) 95,74 %
14.12.2016 17:46 4,4 C 92 % 1025,8 hPa 0,0 l/m 1,9 km/h (1 Bft) NW 313 0 min 0,000 mm 0,0 UV-I 0 W/m 3,2 C 4,4 C 4,8 km/h (1 Bft) 100,00 %
14.12.2016 17:48 4,4 C 92 % 1025,8 hPa 0,0 l/m 0,8 km/h (0 Bft) NW 313 0 min 0,000 mm 0,0 UV-I 0 W/m 3,2 C 4,4 C 3,2 km/h (1 Bft) 98,00 %
14.12.2016 17:50 4,4 C 92 % 1025,8 hPa 0,0 l/m 0,4 km/h (0 Bft) NW 313 0 min 0,000 mm 0,0 UV-I 0 W/m 3,2 C 4,4 C 3,2 km/h (1 Bft) 100,00 %
14.12.2016 17:52 4,4 C 92 % 1025,8 hPa 0,0 l/m 0,9 km/h (0 Bft) NW 313 0 min 0,000 mm 0,0 UV-I 0 W/m 3,2 C 4,4 C 3,2 km/h (1 Bft) 97,87 %
14.12.2016 17:54 4,4 C 92 % 1025,8 hPa 0,0 l/m 0,8 km/h (0 Bft) NW 313 0 min 0,000 mm 0,0 UV-I 0 W/m 3,2 C 4,4 C 3,2 km/h (1 Bft) 96,00 %
14.12.2016 17:56 4,4 C 92 % 1025,8 hPa 0,0 l/m 3,3 km/h (1 Bft) W-NW 290 0 min 0,000 mm 0,0 UV-I 0 W/m 3,2 C 4,4 C 6,4 km/h (2 Bft) 100,00 %
14.12.2016 17:58 4,4 C 92 % 1025,8 hPa 0,0 l/m 4,1 km/h (1 Bft) W 269 0 min 0,000 mm 0,0 UV-I 0 W/m 3,2 C 4,4 C 6,4 km/h (2 Bft) 100,00 %
14.12.2016 18:00 4,4 C 92 % 1025,8 hPa 0,0 l/m 5,3 km/h (1 Bft) W-SW 255 0 min 0,000 mm 0,0 UV-I 0 W/m 3,2 C 4,4 C 9,7 km/h (2 Bft) 100,00 %
14.12.2016 18:02 4,4 C 93 % 1025,8 hPa 0,0 l/m 7,0 km/h (2 Bft) W-SW 257 0 min 0,000 mm 0,0 UV-I 0 W/m 3,4 C 3,9 C 11,3 km/h (2 Bft) 100,00 %
14.12.2016 18:04 4,4 C 93 % 1025,8 hPa 0,0 l/m 7,3 km/h (2 Bft) W 279 0 min 0,000 mm 0,0 UV-I 0 W/m 3,4 C 3,6 C 11,3 km/h (2 Bft) 95,74 %
14.12.2016 18:06 4,4 C 93 % 1025,8 hPa 0,0 l/m 6,1 km/h (2 Bft) W-SW 248 0 min 0,000 mm 0,0 UV-I 0 W/m 3,4 C 4,4 C 9,7 km/h (2 Bft) 100,00 %
14.12.2016 18:08 4,4 C 93 % 1025,8 hPa 0,0 l/m 9,6 km/h (2 Bft) SW 232 0 min 0,000 mm 0,0 UV-I 0 W/m 3,4 C 1,7 C 12,9 km/h (3 Bft) 100,00 %
14.12.2016 18:10 4,4 C 93 % 1025,8 hPa 0,0 l/m 10,1 km/h (2 Bft) W 268 0 min 0,000 mm 0,0 UV-I 0 W/m 3,4 C 1,3 C 14,5 km/h (3 Bft) 100,00 %
14.12.2016 18:12 4,4 C 93 % 1025,8 hPa 0,0 l/m 13,7 km/h (3 Bft) W-SW 257 0 min 0,000 mm 0,0 UV-I 0 W/m 3,4 C -0,9 C 19,3 km/h (3 Bft) 100,00 %
14.12.2016 18:14 4,4 C 93 % 1025,7 hPa 0,0 l/m 9,7 km/h (2 Bft) W-SW 249 0 min 0,000 mm 0,0 UV-I 0 W/m 3,4 C 1,6 C 16,1 km/h (3 Bft) 100,00 %
14.12.2016 18:16 4,3 C 93 % 1025,8 hPa 0,0 l/m 12,0 km/h (2 Bft) W-SW 253 0 min 0,000 mm 0,0 UV-I 0 W/m 3,3 C -0,0 C 17,7 km/h (3 Bft) 100,00 %
14.12.2016 18:18 4,3 C 93 % 1025,8 hPa 0,0 l/m 11,5 km/h (2 Bft) W 261 0 min 0,000 mm 0,0 UV-I 0 W/m 3,3 C 0,3 C 17,7 km/h (3 Bft) 98,00 %
14.12.2016 18:20 4,3 C 93 % 1025,9 hPa 0,0 l/m 11,3 km/h (2 Bft) W 277 0 min 0,000 mm 0,0 UV-I 0 W/m 3,3 C 0,4 C 14,5 km/h (3 Bft) 100,00 %
14.12.2016 18:22 4,3 C 93 % 1025,9 hPa 0,0 l/m 5,7 km/h (1 Bft) W-SW 250 0 min 0,000 mm 0,0 UV-I 0 W/m 3,3 C 4,3 C 9,7 km/h (2 Bft) 100,00 %
14.12.2016 18:24 4,3 C 93 % 1025,8 hPa 0,0 l/m 5,3 km/h (1 Bft) W 270 0 min 0,000 mm 0,0 UV-I 0 W/m 3,3 C 4,3 C 6,4 km/h (2 Bft) 100,00 %
14.12.2016 18:26 4,3 C 93 % 1025,9 hPa 0,0 l/m 5,0 km/h (1 Bft) W-NW 286 0 min 0,000 mm 0,0 UV-I 0 W/m 3,3 C 4,3 C 9,7 km/h (2 Bft) 100,00 %
14.12.2016 18:28 4,3 C 93 % 1025,9 hPa 0,0 l/m 8,9 km/h (2 Bft) W-SW 255 0 min 0,000 mm 0,0 UV-I 0 W/m 3,3 C 2,1 C 16,1 km/h (3 Bft) 100,00 %
14.12.2016 18:30 4,3 C 93 % 1025,9 hPa 0,0 l/m 4,5 km/h (1 Bft) W-SW 255 0 min 0,000 mm 0,0 UV-I 0 W/m 3,3 C 4,3 C 11,3 km/h (2 Bft) 100,00 %
14.12.2016 18:32 4,3 C 93 % 1025,9 hPa 0,0 l/m 7,6 km/h (2 Bft) W-SW 242 0 min 0,000 mm 0,0 UV-I 0 W/m 3,3 C 3,2 C 11,3 km/h (2 Bft) 100,00 %
14.12.2016 18:34 4,3 C 93 % 1025,9 hPa 0,0 l/m 9,4 km/h (2 Bft) W 263 0 min 0,000 mm 0,0 UV-I 0 W/m 3,3 C 1,7 C 16,1 km/h (3 Bft) 97,37 %
14.12.2016 18:36 4,3 C 93 % 1025,9 hPa 0,0 l/m 6,7 km/h (2 Bft) W-NW 282 0 min 0,000 mm 0,0 UV-I 0 W/m 3,3 C 4,0 C 14,5 km/h (3 Bft) 100,00 %
14.12.2016 18:38 4,3 C 93 % 1025,9 hPa 0,0 l/m 7,0 km/h (2 Bft) W-SW 256 0 min 0,000 mm 0,0 UV-I 0 W/m 3,3 C 3,8 C 14,5 km/h (3 Bft) 91,43 %
14.12.2016 18:40 4,2 C 93 % 1026,0 hPa 0,0 l/m 3,9 km/h (1 Bft) W 263 0 min 0,000 mm 0,0 UV-I 0 W/m 3,2 C 4,2 C 4,8 km/h (1 Bft) 98,21 %
14.12.2016 18:42 4,2 C 93 % 1025,9 hPa 0,0 l/m 6,5 km/h (2 Bft) W 277 0 min 0,000 mm 0,0 UV-I 0 W/m 3,2 C 4,1 C 14,5 km/h (3 Bft) 97,56 %
14.12.2016 18:44 4,2 C 93 % 1025,9 hPa 0,0 l/m 6,1 km/h (2 Bft) SW 225 0 min 0,000 mm 0,0 UV-I 0 W/m 3,2 C 4,2 C 9,7 km/h (2 Bft) 98,00 %
14.12.2016 18:46 4,2 C 93 % 1026,0 hPa 0,0 l/m 6,3 km/h (2 Bft) W 268 0 min 0,000 mm 0,0 UV-I 0 W/m 3,2 C 4,2 C 11,3 km/h (2 Bft) 95,74 %
14.12.2016 18:48 4,2 C 93 % 1026,0 hPa 0,0 l/m 5,3 km/h (1 Bft) SW 236 0 min 0,000 mm 0,0 UV-I 0 W/m 3,2 C 4,2 C 11,3 km/h (2 Bft) 96,00 %
14.12.2016 18:50 4,2 C 93 % 1026,0 hPa 0,0 l/m 6,7 km/h (2 Bft) W 278 0 min 0,000 mm 0,0 UV-I 0 W/m 3,2 C 3,9 C 11,3 km/h (2 Bft) 98,00 %
14.12.2016 18:52 4,2 C 93 % 1026,0 hPa 0,0 l/m 4,9 km/h (1 Bft) W-SW 249 0 min 0,000 mm 0,0 UV-I 0 W/m 3,2 C 4,2 C 6,4 km/h (2 Bft) 97,56 %
14.12.2016 18:54 4,2 C 93 % 1026,0 hPa 0,0 l/m 3,5 km/h (1 Bft) W-SW 250 0 min 0,000 mm 0,0 UV-I 0 W/m 3,2 C 4,2 C 4,8 km/h (1 Bft) 98,11 %
14.12.2016 18:56 4,2 C 93 % 1026,1 hPa 0,0 l/m 6,5 km/h (2 Bft) SW 230 0 min 0,000 mm 0,0 UV-I 0 W/m 3,2 C 4,1 C 11,3 km/h (2 Bft) 97,37 %
14.12.2016 18:58 4,2 C 93 % 1026,0 hPa 0,0 l/m 7,6 km/h (2 Bft) W-SW 243 0 min 0,000 mm 0,0 UV-I 0 W/m 3,2 C 3,1 C 9,7 km/h (2 Bft) 97,62 %
14.12.2016 19:00 4,2 C 93 % 1026,0 hPa 0,0 l/m 7,3 km/h (2 Bft) SW 235 0 min 0,000 mm 0,0 UV-I 0 W/m 3,2 C 3,4 C 11,3 km/h (2 Bft) 98,28 %
14.12.2016 19:02 4,1 C 93 % 1026,1 hPa 0,0 l/m 8,6 km/h (2 Bft) S-SW 211 0 min 0,000 mm 0,0 UV-I 0 W/m 3,1 C 2,2 C 12,9 km/h (3 Bft) 97,44 %
14.12.2016 19:04 4,1 C 93 % 1026,1 hPa 0,0 l/m 5,3 km/h (1 Bft) W-SW 246 0 min 0,000 mm 0,0 UV-I 0 W/m 3,1 C 4,1 C 6,4 km/h (2 Bft) 96,36 %
14.12.2016 19:06 4,1 C 93 % 1026,1 hPa 0,0 l/m 6,3 km/h (2 Bft) W 259 0 min 0,000 mm 0,0 UV-I 0 W/m 3,1 C 4,1 C 9,7 km/h (2 Bft) 97,22 %
14.12.2016 19:08 4,1 C 93 % 1026,1 hPa 0,0 l/m 5,7 km/h (1 Bft) W-SW 237 0 min 0,000 mm 0,0 UV-I 0 W/m 3,1 C 4,1 C 9,7 km/h (2 Bft) 98,11 %
14.12.2016 19:10 4,1 C 93 % 1026,1 hPa 0,0 l/m 7,8 km/h (2 Bft) SW 232 0 min 0,000 mm 0,0 UV-I 0 W/m 3,1 C 2,8 C 11,3 km/h (2 Bft) 97,73 %
14.12.2016 19:12 4,1 C 94 % 1026,1 hPa 0,0 l/m 7,9 km/h (2 Bft) W-SW 243 0 min 0,000 mm 0,0 UV-I 0 W/m 3,2 C 2,7 C 12,9 km/h (3 Bft) 98,11 %
14.12.2016 19:14 4,1 C 94 % 1026,1 hPa 0,0 l/m 6,5 km/h (2 Bft) W-SW 245 0 min 0,000 mm 0,0 UV-I 0 W/m 3,2 C 4,0 C 9,7 km/h (2 Bft) 97,73 %
14.12.2016 19:16 4,1 C 94 % 1026,0 hPa 0,0 l/m 7,2 km/h (2 Bft) W-SW 252 0 min 0,000 mm 0,0 UV-I 0 W/m 3,2 C 3,4 C 11,3 km/h (2 Bft) 98,00 %
14.12.2016 19:18 4,1 C 94 % 1026,0 hPa 0,0 l/m 8,6 km/h (2 Bft) W 259 0 min 0,000 mm 0,0 UV-I 0 W/m 3,2 C 2,2 C 14,5 km/h (3 Bft) 97,56 %
14.12.2016 19:20 4,1 C 94 % 1025,9 hPa 0,0 l/m 9,0 km/h (2 Bft) W 262 0 min 0,000 mm 0,0 UV-I 0 W/m 3,2 C 1,8 C 12,9 km/h (3 Bft) 100,00 %
14.12.2016 19:22 4,1 C 94 % 1026,0 hPa 0,0 l/m 8,0 km/h (2 Bft) W 281 0 min 0,000 mm 0,0 UV-I 0 W/m 3,2 C 2,7 C 14,5 km/h (3 Bft) 97,87 %
14.12.2016 19:24 4,0 C 94 % 1025,9 hPa 0,0 l/m 6,9 km/h (2 Bft) SW 225 0 min 0,000 mm 0,0 UV-I 0 W/m 3,1 C 3,5 C 12,9 km/h (3 Bft) 100,00 %
14.12.2016 19:26 4,0 C 94 % 1025,9 hPa 0,0 l/m 5,3 km/h (1 Bft) SW 215 0 min 0,000 mm 0,0 UV-I 0 W/m 3,1 C 4,0 C 11,3 km/h (2 Bft) 100,00 %
14.12.2016 19:28 4,0 C 94 % 1025,9 hPa 0,0 l/m 6,1 km/h (2 Bft) S-SW 203 0 min 0,000 mm 0,0 UV-I 0 W/m 3,1 C 4,0 C 9,7 km/h (2 Bft) 100,00 %
14.12.2016 19:30 4,0 C 94 % 1025,9 hPa 0,0 l/m 5,3 km/h (1 Bft) S-SW 199 0 min 0,000 mm 0,0 UV-I 0 W/m 3,1 C 4,0 C 8,0 km/h (2 Bft) 97,87 %
14.12.2016 19:32 4,0 C 94 % 1025,9 hPa 0,0 l/m 6,2 km/h (2 Bft) S-SW 207 0 min 0,000 mm 0,0 UV-I 0 W/m 3,1 C 4,0 C 9,7 km/h (2 Bft) 100,00 %
14.12.2016 19:34 4,0 C 94 % 1025,9 hPa 0,0 l/m 6,7 km/h (2 Bft) SW 219 0 min 0,000 mm 0,0 UV-I 0 W/m 3,1 C 3,7 C 12,9 km/h (3 Bft) 97,87 %
14.12.2016 19:36 4,0 C 94 % 1025,8 hPa 0,0 l/m 5,1 km/h (1 Bft) S-SW 213 0 min 0,000 mm 0,0 UV-I 0 W/m 3,1 C 4,0 C 11,3 km/h (2 Bft) 98,11 %
14.12.2016 19:38 4,0 C 94 % 1025,9 hPa 0,0 l/m 4,2 km/h (1 Bft) W-SW 247 0 min 0,000 mm 0,0 UV-I 0 W/m 3,1 C 4,0 C 8,0 km/h (2 Bft) 100,00 %
14.12.2016 19:40 4,0 C 94 % 1025,9 hPa 0,0 l/m 4,2 km/h (1 Bft) W-SW 254 0 min 0,000 mm 0,0 UV-I 0 W/m 3,1 C 4,0 C 6,4 km/h (2 Bft) 100,00 %
14.12.2016 19:42 4,0 C 94 % 1026,0 hPa 0,0 l/m 1,9 km/h (1 Bft) W-SW 254 0 min 0,000 mm 0,0 UV-I 0 W/m 3,1 C 4,0 C 3,2 km/h (1 Bft) 100,00 %
14.12.2016 19:44 4,0 C 94 % 1026,2 hPa 0,0 l/m 0,8 km/h (0 Bft) W-SW 256 0 min 0,000 mm 0,0 UV-I 0 W/m 3,1 C 4,0 C 3,2 km/h (1 Bft) 100,00 %
14.12.2016 19:46 3,9 C 94 % 1026,3 hPa 0,0 l/m 1,6 km/h (1 Bft) W-SW 256 0 min 0,000 mm 0,0 UV-I 0 W/m 3,0 C 3,9 C 4,8 km/h (1 Bft) 100,00 %
14.12.2016 19:48 3,9 C 94 % 1026,3 hPa 0,0 l/m 1,2 km/h (1 Bft) W-SW 256 0 min 0,000 mm 0,0 UV-I 0 W/m 3,0 C 3,9 C 3,2 km/h (1 Bft) 100,00 %
14.12.2016 19:50 3,9 C 95 % 1026,3 hPa 0,0 l/m 1,3 km/h (1 Bft) W-SW 256 0 min 0,000 mm 0,0 UV-I 0 W/m 3,2 C 3,9 C 3,2 km/h (1 Bft) 100,00 %
14.12.2016 19:52 3,9 C 95 % 1026,3 hPa 0,0 l/m 2,2 km/h (1 Bft) W 266 0 min 0,000 mm 0,0 UV-I 0 W/m 3,2 C 3,9 C 4,8 km/h (1 Bft) 100,00 %
14.12.2016 19:54 3,9 C 95 % 1026,3 hPa 0,0 l/m 2,7 km/h (1 Bft) W 266 0 min 0,000 mm 0,0 UV-I 0 W/m 3,2 C 3,9 C 4,8 km/h (1 Bft) 98,11 %
14.12.2016 19:56 3,9 C 95 % 1026,3 hPa 0,0 l/m 4,3 km/h (1 Bft) W 266 0 min 0,000 mm 0,0 UV-I 0 W/m 3,2 C 3,9 C 6,4 km/h (2 Bft) 100,00 %
14.12.2016 19:58 3,8 C 95 % 1026,4 hPa 0,0 l/m 2,4 km/h (1 Bft) W 266 0 min 0,000 mm 0,0 UV-I 0 W/m 3,1 C 3,8 C 4,8 km/h (1 Bft) 100,00 %
14.12.2016 20:00 3,8 C 95 % 1026,4 hPa 0,0 l/m 0,7 km/h (0 Bft) W 266 0 min 0,000 mm 0,0 UV-I 0 W/m 3,1 C 3,8 C 1,6 km/h (1 Bft) 100,00 %
14.12.2016 20:02 3,8 C 95 % 1026,4 hPa 0,0 l/m 1,6 km/h (1 Bft) W 266 0 min 0,000 mm 0,0 UV-I 0 W/m 3,1 C 3,8 C 3,2 km/h (1 Bft) 100,00 %
14.12.2016 20:04 3,8 C 95 % 1026,4 hPa 0,0 l/m 2,9 km/h (1 Bft) W 266 0 min 0,000 mm 0,0 UV-I 0 W/m 3,1 C 3,8 C 4,8 km/h (1 Bft) 100,00 %
14.12.2016 20:06 3,8 C 95 % 1026,4 hPa 0,0 l/m 2,7 km/h (1 Bft) W 266 0 min 0,000 mm 0,0 UV-I 0 W/m 3,1 C 3,8 C 4,8 km/h (1 Bft) 100,00 %
14.12.2016 20:08 3,8 C 95 % 1026,5 hPa 0,0 l/m 3,7 km/h (1 Bft) W 281 0 min 0,000 mm 0,0 UV-I 0 W/m 3,1 C 3,8 C 9,7 km/h (2 Bft) 95,35 %
14.12.2016 20:10 3,8 C 95 % 1026,5 hPa 0,0 l/m 1,3 km/h (1 Bft) W 281 0 min 0,000 mm 0,0 UV-I 0 W/m 3,1 C 3,8 C 3,2 km/h (1 Bft) 98,21 %
14.12.2016 20:12 3,8 C 95 % 1026,6 hPa 0,0 l/m 0,8 km/h (0 Bft) W 281 0 min 0,000 mm 0,0 UV-I 0 W/m 3,1 C 3,8 C 4,8 km/h (1 Bft) 100,00 %
14.12.2016 20:14 3,7 C 95 % 1026,7 hPa 0,0 l/m 1,7 km/h (1 Bft) W-NW 282 0 min 0,000 mm 0,0 UV-I 0 W/m 3,0 C 3,7 C 3,2 km/h (1 Bft) 100,00 %
14.12.2016 20:16 3,7 C 95 % 1026,7 hPa 0,0 l/m 0,5 km/h (0 Bft) W-NW 282 0 min 0,000 mm 0,0 UV-I 0 W/m 3,0 C 3,7 C 3,2 km/h (1 Bft) 100,00 %
14.12.2016 20:18 3,7 C 95 % 1026,7 hPa 0,0 l/m 3,5 km/h (1 Bft) W 262 0 min 0,000 mm 0,0 UV-I 0 W/m 3,0 C 3,7 C 9,7 km/h (2 Bft) 100,00 %
14.12.2016 20:20 3,7 C 95 % 1026,7 hPa 0,0 l/m 4,5 km/h (1 Bft) W 277 0 min 0,000 mm 0,0 UV-I 0 W/m 3,0 C 3,7 C 6,4 km/h (2 Bft) 100,00 %
14.12.2016 20:22 3,8 C 95 % 1026,7 hPa 0,0 l/m 3,5 km/h (1 Bft) W 277 0 min 0,000 mm 0,0 UV-I 0 W/m 3,1 C 3,8 C 4,8 km/h (1 Bft) 98,00 %
14.12.2016 20:24 3,8 C 95 % 1026,8 hPa 0,0 l/m 2,3 km/h (1 Bft) W 277 0 min 0,000 mm 0,0 UV-I 0 W/m 3,1 C 3,8 C 4,8 km/h (1 Bft) 100,00 %
14.12.2016 20:26 3,8 C 95 % 1026,8 hPa 0,0 l/m 3,1 km/h (1 Bft) W-SW 245 0 min 0,000 mm 0,0 UV-I 0 W/m 3,1 C 3,8 C 4,8 km/h (1 Bft) 98,00 %
14.12.2016 20:28 3,8 C 95 % 1026,8 hPa 0,0 l/m 3,2 km/h (1 Bft) W-SW 247 0 min 0,000 mm 0,0 UV-I 0 W/m 3,1 C 3,8 C 4,8 km/h (1 Bft) 100,00 %
14.12.2016 20:30 3,8 C 95 % 1026,8 hPa 0,0 l/m 1,0 km/h (0 Bft) W-SW 247 0 min 0,000 mm 0,0 UV-I 0 W/m 3,1 C 3,8 C 4,8 km/h (1 Bft) 100,00 %
14.12.2016 20:32 3,8 C 95 % 1026,8 hPa 0,0 l/m 3,4 km/h (1 Bft) W-NW 290 0 min 0,000 mm 0,0 UV-I 0 W/m 3,1 C 3,8 C 6,4 km/h (2 Bft) 98,00 %
14.12.2016 20:34 3,8 C 95 % 1026,9 hPa 0,0 l/m 5,0 km/h (1 Bft) W 278 0 min 0,000 mm 0,0 UV-I 0 W/m 3,1 C 3,8 C 9,7 km/h (2 Bft) 100,00 %
14.12.2016 20:36 3,8 C 95 % 1026,8 hPa 0,0 l/m 4,7 km/h (1 Bft) SW 236 0 min 0,000 mm 0,0 UV-I 0 W/m 3,1 C 3,8 C 6,4 km/h (2 Bft) 100,00 %
14.12.2016 20:38 3,8 C 95 % 1026,7 hPa 0,0 l/m 4,4 km/h (1 Bft) W-SW 240 0 min 0,000 mm 0,0 UV-I 0 W/m 3,1 C 3,8 C 6,4 km/h (2 Bft) 98,11 %
14.12.2016 20:40 3,8 C 95 % 1026,7 hPa 0,0 l/m 4,8 km/h (1 Bft) W-SW 244 0 min 0,000 mm 0,0 UV-I 0 W/m 3,1 C 3,8 C 8,0 km/h (2 Bft) 98,00 %
14.12.2016 20:42 3,8 C 95 % 1026,8 hPa 0,0 l/m 4,0 km/h (1 Bft) W-SW 257 0 min 0,000 mm 0,0 UV-I 0 W/m 3,1 C 3,8 C 6,4 km/h (2 Bft) 100,00 %
14.12.2016 20:44 3,8 C 95 % 1026,7 hPa 0,0 l/m 4,8 km/h (1 Bft) W-SW 255 0 min 0,000 mm 0,0 UV-I 0 W/m 3,1 C 3,8 C 6,4 km/h (2 Bft) 100,00 %
14.12.2016 20:46 3,8 C 95 % 1026,7 hPa 0,0 l/m 5,7 km/h (1 Bft) SW 235 0 min 0,000 mm 0,0 UV-I 0 W/m 3,1 C 3,8 C 8,0 km/h (2 Bft) 96,23 %
14.12.2016 20:48 3,8 C 95 % 1026,7 hPa 0,0 l/m 7,3 km/h (2 Bft) W-SW 255 0 min 0,000 mm 0,0 UV-I 0 W/m 3,1 C 3,0 C 11,3 km/h (2 Bft) 97,37 %
14.12.2016 20:50 3,8 C 95 % 1026,8 hPa 0,0 l/m 8,3 km/h (2 Bft) W 262 0 min 0,000 mm 0,0 UV-I 0 W/m 3,1 C 2,1 C 14,5 km/h (3 Bft) 97,87 %
14.12.2016 20:52 3,8 C 95 % 1026,7 hPa 0,0 l/m 5,5 km/h (1 Bft) W 281 0 min 0,000 mm 0,0 UV-I 0 W/m 3,1 C 3,8 C 11,3 km/h (2 Bft) 96,00 %
14.12.2016 20:54 3,8 C 95 % 1026,8 hPa 0,0 l/m 5,9 km/h (2 Bft) W-SW 246 0 min 0,000 mm 0,0 UV-I 0 W/m 3,1 C 3,8 C 11,3 km/h (2 Bft) 97,87 %
14.12.2016 20:56 3,8 C 95 % 1026,8 hPa 0,0 l/m 8,4 km/h (2 Bft) W-NW 290 0 min 0,000 mm 0,0 UV-I 0 W/m 3,1 C 2,0 C 14,5 km/h (3 Bft) 95,12 %
14.12.2016 20:58 3,8 C 95 % 1026,8 hPa 0,0 l/m 5,8 km/h (2 Bft) W 279 0 min 0,000 mm 0,0 UV-I 0 W/m 3,1 C 3,8 C 9,7 km/h (2 Bft) 98,11 %
14.12.2016 21:00 3,8 C 95 % 1026,9 hPa 0,0 l/m 3,4 km/h (1 Bft) W 277 0 min 0,000 mm 0,0 UV-I 0 W/m 3,1 C 3,8 C 4,8 km/h (1 Bft) 98,00 %
14.12.2016 21:02 3,8 C 95 % 1026,9 hPa 0,0 l/m 1,1 km/h (1 Bft) W 277 0 min 0,000 mm 0,0 UV-I 0 W/m 3,1 C 3,8 C 3,2 km/h (1 Bft) 97,44 %
14.12.2016 21:04 3,8 C 95 % 1026,9 hPa 0,0 l/m 1,2 km/h (1 Bft) W 277 0 min 0,000 mm 0,0 UV-I 0 W/m 3,1 C 3,8 C 3,2 km/h (1 Bft) 95,74 %
14.12.2016 21:06 3,7 C 95 % 1026,9 hPa 0,0 l/m 2,2 km/h (1 Bft) W 271 0 min 0,000 mm 0,0 UV-I 0 W/m 3,0 C 3,7 C 4,8 km/h (1 Bft) 94,00 %
14.12.2016 21:08 3,7 C 95 % 1026,8 hPa 0,0 l/m 3,7 km/h (1 Bft) SW 234 0 min 0,000 mm 0,0 UV-I 0 W/m 3,0 C 3,7 C 6,4 km/h (2 Bft) 98,00 %
14.12.2016 21:10 3,7 C 95 % 1026,8 hPa 0,0 l/m 2,8 km/h (1 Bft) SW 234 0 min 0,000 mm 0,0 UV-I 0 W/m 3,0 C 3,7 C 4,8 km/h (1 Bft) 98,00 %
14.12.2016 21:12 3,7 C 95 % 1026,8 hPa 0,0 l/m 2,1 km/h (1 Bft) W-SW 252 0 min 0,000 mm 0,0 UV-I 0 W/m 3,0 C 3,7 C 4,8 km/h (1 Bft) 97,37 %
14.12.2016 21:14 3,7 C 95 % 1026,8 hPa 0,0 l/m 1,8 km/h (1 Bft) W-SW 252 0 min 0,000 mm 0,0 UV-I 0 W/m 3,0 C 3,7 C 4,8 km/h (1 Bft) 98,00 %
14.12.2016 21:16 3,7 C 95 % 1026,9 hPa 0,0 l/m 0,7 km/h (0 Bft) W-SW 252 0 min 0,000 mm 0,0 UV-I 0 W/m 3,0 C 3,7 C 3,2 km/h (1 Bft) 97,87 %
14.12.2016 21:18 3,7 C 95 % 1026,9 hPa 0,0 l/m 0,9 km/h (0 Bft) W-SW 252 0 min 0,000 mm 0,0 UV-I 0 W/m 3,0 C 3,7 C 3,2 km/h (1 Bft) 98,11 %
14.12.2016 21:20 3,7 C 95 % 1026,9 hPa 0,0 l/m 0,9 km/h (0 Bft) W-SW 252 0 min 0,000 mm 0,0 UV-I 0 W/m 3,0 C 3,7 C 3,2 km/h (1 Bft) 97,37 %
14.12.2016 21:22 3,7 C 95 % 1026,9 hPa 0,0 l/m 1,2 km/h (1 Bft) W-SW 252 0 min 0,000 mm 0,0 UV-I 0 W/m 3,0 C 3,7 C 3,2 km/h (1 Bft) 98,11 %
14.12.2016 21:24 3,6 C 95 % 1026,9 hPa 0,0 l/m 0,9 km/h (0 Bft) W-SW 252 0 min 0,000 mm 0,0 UV-I 0 W/m 2,9 C 3,6 C 3,2 km/h (1 Bft) 100,00 %
14.12.2016 21:26 3,6 C 95 % 1026,9 hPa 0,0 l/m 0,3 km/h (0 Bft) W 259 0 min 0,000 mm 0,0 UV-I 0 W/m 2,9 C 3,6 C 1,6 km/h (1 Bft) 100,00 %
14.12.2016 21:28 3,6 C 95 % 1026,9 hPa 0,0 l/m 0,1 km/h (0 Bft) W 259 0 min 0,000 mm 0,0 UV-I 0 W/m 2,9 C 3,6 C 1,6 km/h (1 Bft) 97,87 %
14.12.2016 21:30 3,6 C 95 % 1026,9 hPa 0,0 l/m 0,4 km/h (0 Bft) W 259 0 min 0,000 mm 0,0 UV-I 0 W/m 2,9 C 3,6 C 1,6 km/h (1 Bft) 100,00 %
14.12.2016 21:32 3,6 C 95 % 1027,0 hPa 0,0 l/m 0,9 km/h (0 Bft) W 259 0 min 0,000 mm 0,0 UV-I 0 W/m 2,9 C 3,6 C 3,2 km/h (1 Bft) 100,00 %
14.12.2016 21:34 3,5 C 95 % 1027,0 hPa 0,0 l/m 0,4 km/h (0 Bft) W 259 0 min 0,000 mm 0,0 UV-I 0 W/m 2,8 C 3,5 C 1,6 km/h (1 Bft) 100,00 %
14.12.2016 21:36 3,5 C 95 % 1027,1 hPa 0,0 l/m 0,0 km/h (0 Bft) W 259 0 min 0,000 mm 0,0 UV-I 0 W/m 2,8 C 3,5 C 0,0 km/h (0 Bft) 100,00 %
14.12.2016 21:38 3,5 C 95 % 1027,2 hPa 0,0 l/m 0,0 km/h (0 Bft) W 259 0 min 0,000 mm 0,0 UV-I 0 W/m 2,8 C 3,5 C 0,0 km/h (0 Bft) 98,28 %
14.12.2016 21:40 3,5 C 95 % 1027,1 hPa 0,0 l/m 0,3 km/h (0 Bft) W 259 0 min 0,000 mm 0,0 UV-I 0 W/m 2,8 C 3,5 C 1,6 km/h (1 Bft) 98,00 %
14.12.2016 21:43 3,4 C 95 % 1027,1 hPa 0,0 l/m 2,1 km/h (1 Bft) W 259 0 min 0,000 mm 0,0 UV-I 0 W/m 2,7 C 3,4 C 4,8 km/h (1 Bft) 100,00 %
14.12.2016 21:44 3,4 C 95 % 1027,1 hPa 0,0 l/m 2,3 km/h (1 Bft) W 259 0 min 0,000 mm 0,0 UV-I 0 W/m 2,7 C 3,4 C 3,2 km/h (1 Bft) 100,00 %
14.12.2016 21:46 3,4 C 95 % 1027,2 hPa 0,0 l/m 0,4 km/h (0 Bft) W 259 0 min 0,000 mm 0,0 UV-I 0 W/m 2,7 C 3,4 C 1,6 km/h (1 Bft) 100,00 %
14.12.2016 21:48 3,4 C 95 % 1027,2 hPa 0,0 l/m 0,3 km/h (0 Bft) W 259 0 min 0,000 mm 0,0 UV-I 0 W/m 2,7 C 3,4 C 1,6 km/h (1 Bft) 100,00 %
14.12.2016 21:50 3,4 C 95 % 1027,2 hPa 0,0 l/m 2,2 km/h (1 Bft) W 259 0 min 0,000 mm 0,0 UV-I 0 W/m 2,7 C 3,4 C 3,2 km/h (1 Bft) 100,00 %
14.12.2016 21:52 3,4 C 95 % 1027,2 hPa 0,0 l/m 0,9 km/h (0 Bft) W 259 0 min 0,000 mm 0,0 UV-I 0 W/m 2,7 C 3,4 C 3,2 km/h (1 Bft) 100,00 %
14.12.2016 21:54 3,4 C 96 % 1027,3 hPa 0,0 l/m 0,0 km/h (0 Bft) W 259 0 min 0,000 mm 0,0 UV-I 0 W/m 2,8 C 3,4 C 0,0 km/h (0 Bft) 98,00 %
14.12.2016 21:56 3,4 C 96 % 1027,2 hPa 0,0 l/m 2,0 km/h (1 Bft) W 259 0 min 0,000 mm 0,0 UV-I 0 W/m 2,8 C 3,4 C 3,2 km/h (1 Bft) 100,00 %
14.12.2016 21:58 3,4 C 96 % 1027,3 hPa 0,0 l/m 2,6 km/h (1 Bft) W 259 0 min 0,000 mm 0,0 UV-I 0 W/m 2,8 C 3,4 C 6,4 km/h (2 Bft) 100,00 %
14.12.2016 22:00 3,4 C 96 % 1027,3 hPa 0,0 l/m 0,5 km/h (0 Bft) W 261 0 min 0,000 mm 0,0 UV-I 0 W/m 2,8 C 3,4 C 1,6 km/h (1 Bft) 97,56 %
14.12.2016 22:02 3,4 C 96 % 1027,3 hPa 0,0 l/m 0,4 km/h (0 Bft) W 261 0 min 0,000 mm 0,0 UV-I 0 W/m 2,8 C 3,4 C 1,6 km/h (1 Bft) 97,87 %
14.12.2016 22:04 3,4 C 96 % 1027,3 hPa 0,0 l/m 1,8 km/h (1 Bft) W 265 0 min 0,000 mm 0,0 UV-I 0 W/m 2,8 C 3,4 C 3,2 km/h (1 Bft) 96,00 %
14.12.2016 22:06 3,4 C 96 % 1027,3 hPa 0,0 l/m 1,3 km/h (1 Bft) W 265 0 min 0,000 mm 0,0 UV-I 0 W/m 2,8 C 3,4 C 3,2 km/h (1 Bft) 100,00 %
14.12.2016 22:08 3,4 C 96 % 1027,3 hPa 0,0 l/m 3,0 km/h (1 Bft) W 262 0 min 0,000 mm 0,0 UV-I 0 W/m 2,8 C 3,4 C 4,8 km/h (1 Bft) 96,23 %
14.12.2016 22:10 3,4 C 96 % 1027,3 hPa 0,0 l/m 4,6 km/h (1 Bft) W-SW 258 0 min 0,000 mm 0,0 UV-I 0 W/m 2,8 C 3,4 C 6,4 km/h (2 Bft) 100,00 %
14.12.2016 22:12 3,4 C 96 % 1027,3 hPa 0,0 l/m 5,9 km/h (2 Bft) W-NW 284 0 min 0,000 mm 0,0 UV-I 0 W/m 2,8 C 3,4 C 11,3 km/h (2 Bft) 96,88 %
14.12.2016 22:14 3,4 C 96 % 1027,4 hPa 0,0 l/m 5,1 km/h (1 Bft) W 267 0 min 0,000 mm 0,0 UV-I 0 W/m 2,8 C 3,4 C 9,7 km/h (2 Bft) 100,00 %
14.12.2016 22:16 3,4 C 96 % 1027,4 hPa 0,0 l/m 4,2 km/h (1 Bft) W-SW 250 0 min 0,000 mm 0,0 UV-I 0 W/m 2,8 C 3,4 C 9,7 km/h (2 Bft) 100,00 %
14.12.2016 22:18 3,4 C 96 % 1027,4 hPa 0,0 l/m 1,0 km/h (0 Bft) W-SW 250 0 min 0,000 mm 0,0 UV-I 0 W/m 2,8 C 3,4 C 3,2 km/h (1 Bft) 95,45 %
14.12.2016 22:20 3,4 C 96 % 1027,4 hPa 0,0 l/m 1,9 km/h (1 Bft) W-SW 250 0 min 0,000 mm 0,0 UV-I 0 W/m 2,8 C 3,4 C 4,8 km/h (1 Bft) 100,00 %
14.12.2016 22:22 3,3 C 96 % 1027,4 hPa 0,0 l/m 3,0 km/h (1 Bft) W-SW 248 0 min 0,000 mm 0,0 UV-I 0 W/m 2,7 C 3,3 C 6,4 km/h (2 Bft) 100,00 %
14.12.2016 22:24 3,3 C 96 % 1027,3 hPa 0,0 l/m 5,1 km/h (1 Bft) SW 235 0 min 0,000 mm 0,0 UV-I 0 W/m 2,7 C 3,3 C 6,4 km/h (2 Bft) 100,00 %
14.12.2016 22:26 3,4 C 96 % 1027,3 hPa 0,2 l/m 4,6 km/h (1 Bft) SW 231 0 min 0,000 mm 0,0 UV-I 0 W/m 2,8 C 3,4 C 8,0 km/h (2 Bft) 100,00 %
14.12.2016 22:28 3,3 C 96 % 1027,3 hPa 0,0 l/m 6,1 km/h (2 Bft) SW 227 0 min 0,000 mm 0,0 UV-I 0 W/m 2,7 C 3,3 C 9,7 km/h (2 Bft) 100,00 %
14.12.2016 22:30 3,3 C 96 % 1027,3 hPa 0,0 l/m 7,3 km/h (2 Bft) SW 214 0 min 0,000 mm 0,0 UV-I 0 W/m 2,7 C 2,5 C 9,7 km/h (2 Bft) 100,00 %
14.12.2016 22:32 3,3 C 96 % 1027,3 hPa 0,0 l/m 5,2 km/h (1 Bft) SW 216 0 min 0,000 mm 0,0 UV-I 0 W/m 2,7 C 3,3 C 8,0 km/h (2 Bft) 100,00 %
14.12.2016 22:34 3,3 C 96 % 1027,3 hPa 0,0 l/m 4,6 km/h (1 Bft) SW 216 0 min 0,000 mm 0,0 UV-I 0 W/m 2,7 C 3,3 C 8,0 km/h (2 Bft) 97,73 %
14.12.2016 22:36 3,3 C 96 % 1027,3 hPa 0,0 l/m 5,2 km/h (1 Bft) SW 229 0 min 0,000 mm 0,0 UV-I 0 W/m 2,7 C 3,3 C 9,7 km/h (2 Bft) 100,00 %
14.12.2016 22:38 3,3 C 96 % 1027,3 hPa 0,0 l/m 6,2 km/h (2 Bft) SW 216 0 min 0,000 mm 0,0 UV-I 0 W/m 2,7 C 3,3 C 8,0 km/h (2 Bft) 100,00 %
14.12.2016 22:40 3,3 C 96 % 1027,4 hPa 0,0 l/m 5,0 km/h (1 Bft) SW 215 0 min 0,000 mm 0,0 UV-I 0 W/m 2,7 C 3,3 C 8,0 km/h (2 Bft) 98,11 %
14.12.2016 22:42 3,3 C 96 % 1027,4 hPa 0,0 l/m 4,5 km/h (1 Bft) W-SW 250 0 min 0,000 mm 0,0 UV-I 0 W/m 2,7 C 3,3 C 6,4 km/h (2 Bft) 100,00 %
14.12.2016 22:44 3,3 C 96 % 1027,4 hPa 0,0 l/m 5,6 km/h (1 Bft) W-SW 237 0 min 0,000 mm 0,0 UV-I 0 W/m 2,7 C 3,3 C 6,4 km/h (2 Bft) 100,00 %
14.12.2016 22:46 3,3 C 96 % 1027,4 hPa 0,0 l/m 5,1 km/h (1 Bft) S-SW 211 0 min 0,000 mm 0,0 UV-I 0 W/m 2,7 C 3,3 C 9,7 km/h (2 Bft) 100,00 %
14.12.2016 22:48 3,3 C 96 % 1027,4 hPa 0,0 l/m 5,0 km/h (1 Bft) SW 229 0 min 0,000 mm 0,0 UV-I 0 W/m 2,7 C 3,3 C 6,4 km/h (2 Bft) 100,00 %
14.12.2016 22:50 3,3 C 96 % 1027,5 hPa 0,0 l/m 4,8 km/h (1 Bft) S-SW 213 0 min 0,000 mm 0,0 UV-I 0 W/m 2,7 C 3,3 C 6,4 km/h (2 Bft) 97,73 %
14.12.2016 22:52 3,3 C 96 % 1027,5 hPa 0,0 l/m 3,8 km/h (1 Bft) SW 223 0 min 0,000 mm 0,0 UV-I 0 W/m 2,7 C 3,3 C 4,8 km/h (1 Bft) 98,11 %
14.12.2016 22:54 3,3 C 96 % 1027,5 hPa 0,0 l/m 3,1 km/h (1 Bft) SW 231 0 min 0,000 mm 0,0 UV-I 0 W/m 2,7 C 3,3 C 6,4 km/h (2 Bft) 97,73 %
14.12.2016 22:56 3,3 C 96 % 1027,5 hPa 0,0 l/m 3,4 km/h (1 Bft) SW 231 0 min 0,000 mm 0,0 UV-I 0 W/m 2,7 C 3,3 C 4,8 km/h (1 Bft) 96,00 %
14.12.2016 22:58 3,3 C 96 % 1027,6 hPa 0,0 l/m 3,8 km/h (1 Bft) W-SW 254 0 min 0,000 mm 0,0 UV-I 0 W/m 2,7 C 3,3 C 6,4 km/h (2 Bft) 97,22 %
14.12.2016 23:00 3,3 C 96 % 1027,5 hPa 0,0 l/m 4,7 km/h (1 Bft) W 268 0 min 0,000 mm 0,0 UV-I 0 W/m 2,7 C 3,3 C 6,4 km/h (2 Bft) 98,00 %
14.12.2016 23:02 3,3 C 96 % 1027,6 hPa 0,0 l/m 2,4 km/h (1 Bft) W 268 0 min 0,000 mm 0,0 UV-I 0 W/m 2,7 C 3,3 C 3,2 km/h (1 Bft) 98,00 %
14.12.2016 23:04 3,3 C 96 % 1027,6 hPa 0,0 l/m 1,9 km/h (1 Bft) W 268 0 min 0,000 mm 0,0 UV-I 0 W/m 2,7 C 3,3 C 3,2 km/h (1 Bft) 96,15 %
14.12.2016 23:06 3,3 C 96 % 1027,6 hPa 0,0 l/m 1,0 km/h (0 Bft) W 268 0 min 0,000 mm 0,0 UV-I 0 W/m 2,7 C 3,3 C 3,2 km/h (1 Bft) 100,00 %
14.12.2016 23:08 3,2 C 96 % 1027,6 hPa 0,0 l/m 0,0 km/h (0 Bft) W 268 0 min 0,000 mm 0,0 UV-I 0 W/m 2,6 C 3,2 C 0,0 km/h (0 Bft) 96,43 %
14.12.2016 23:10 3,2 C 96 % 1027,6 hPa 0,0 l/m 0,2 km/h (0 Bft) W 268 0 min 0,000 mm 0,0 UV-I 0 W/m 2,6 C 3,2 C 1,6 km/h (1 Bft) 97,87 %
14.12.2016 23:12 3,2 C 96 % 1027,6 hPa 0,0 l/m 2,0 km/h (1 Bft) W 268 0 min 0,000 mm 0,0 UV-I 0 W/m 2,6 C 3,2 C 3,2 km/h (1 Bft) 94,74 %
14.12.2016 23:14 3,2 C 97 % 1027,6 hPa 0,0 l/m 2,0 km/h (1 Bft) W 268 0 min 0,000 mm 0,0 UV-I 0 W/m 2,8 C 3,2 C 3,2 km/h (1 Bft) 98,00 %
14.12.2016 23:16 3,2 C 97 % 1027,6 hPa 0,0 l/m 1,4 km/h (1 Bft) W 268 0 min 0,000 mm 0,0 UV-I 0 W/m 2,8 C 3,2 C 1,6 km/h (1 Bft) 97,87 %
14.12.2016 23:18 3,3 C 97 % 1027,5 hPa 0,0 l/m 1,4 km/h (1 Bft) W 268 0 min 0,000 mm 0,0 UV-I 0 W/m 2,9 C 3,3 C 3,2 km/h (1 Bft) 98,00 %
14.12.2016 23:20 3,2 C 97 % 1027,5 hPa 0,0 l/m 2,6 km/h (1 Bft) W 267 0 min 0,000 mm 0,0 UV-I 0 W/m 2,8 C 3,2 C 4,8 km/h (1 Bft) 97,56 %
14.12.2016 23:22 3,2 C 97 % 1027,4 hPa 0,0 l/m 4,2 km/h (1 Bft) SW 223 0 min 0,000 mm 0,0 UV-I 0 W/m 2,8 C 3,2 C 6,4 km/h (2 Bft) 96,00 %
14.12.2016 23:24 3,2 C 97 % 1027,5 hPa 0,0 l/m 4,2 km/h (1 Bft) SW 231 0 min 0,000 mm 0,0 UV-I 0 W/m 2,8 C 3,2 C 6,4 km/h (2 Bft) 96,00 %
14.12.2016 23:26 3,2 C 97 % 1027,5 hPa 0,0 l/m 5,8 km/h (2 Bft) SW 231 0 min 0,000 mm 0,0 UV-I 0 W/m 2,8 C 3,2 C 8,0 km/h (2 Bft) 100,00 %
14.12.2016 23:28 3,2 C 97 % 1027,4 hPa 0,0 l/m 5,3 km/h (1 Bft) SW 214 0 min 0,000 mm 0,0 UV-I 0 W/m 2,8 C 3,2 C 8,0 km/h (2 Bft) 100,00 %
14.12.2016 23:30 3,2 C 97 % 1027,4 hPa 0,0 l/m 7,3 km/h (2 Bft) S-SW 213 0 min 0,000 mm 0,0 UV-I 0 W/m 2,8 C 2,4 C 9,7 km/h (2 Bft) 100,00 %
14.12.2016 23:32 3,2 C 97 % 1027,4 hPa 0,0 l/m 6,1 km/h (2 Bft) S-SW 209 0 min 0,000 mm 0,0 UV-I 0 W/m 2,8 C 3,2 C 8,0 km/h (2 Bft) 97,56 %
14.12.2016 23:34 3,2 C 97 % 1027,4 hPa 0,0 l/m 5,2 km/h (1 Bft) SW 219 0 min 0,000 mm 0,0 UV-I 0 W/m 2,8 C 3,2 C 8,0 km/h (2 Bft) 97,62 %
14.12.2016 23:36 3,2 C 97 % 1027,5 hPa 0,0 l/m 3,5 km/h (1 Bft) SW 219 0 min 0,000 mm 0,0 UV-I 0 W/m 2,8 C 3,2 C 4,8 km/h (1 Bft) 98,36 %
14.12.2016 23:38 3,2 C 97 % 1027,5 hPa 0,0 l/m 2,7 km/h (1 Bft) SW 219 0 min 0,000 mm 0,0 UV-I 0 W/m 2,8 C 3,2 C 4,8 km/h (1 Bft) 100,00 %
14.12.2016 23:40 3,2 C 97 % 1027,5 hPa 0,0 l/m 3,3 km/h (1 Bft) SW 219 0 min 0,000 mm 0,0 UV-I 0 W/m 2,8 C 3,2 C 6,4 km/h (2 Bft) 100,00 %
14.12.2016 23:42 3,2 C 97 % 1027,4 hPa 0,0 l/m 3,5 km/h (1 Bft) SW 219 0 min 0,000 mm 0,0 UV-I 0 W/m 2,8 C 3,2 C 6,4 km/h (2 Bft) 100,00 %
14.12.2016 23:44 3,2 C 97 % 1027,4 hPa 0,0 l/m 1,4 km/h (1 Bft) SW 229 0 min 0,000 mm 0,0 UV-I 0 W/m 2,8 C 3,2 C 3,2 km/h (1 Bft) 100,00 %
14.12.2016 23:46 3,2 C 97 % 1027,5 hPa 0,0 l/m 1,4 km/h (1 Bft) N 10 0 min 0,000 mm 0,0 UV-I 0 W/m 2,8 C 3,2 C 3,2 km/h (1 Bft) 100,00 %
14.12.2016 23:48 3,2 C 97 % 1027,5 hPa 0,0 l/m 2,2 km/h (1 Bft) N-NW 342 0 min 0,000 mm 0,0 UV-I 0 W/m 2,8 C 3,2 C 4,8 km/h (1 Bft) 100,00 %
14.12.2016 23:50 3,2 C 97 % 1027,5 hPa 0,0 l/m 0,7 km/h (0 Bft) N 5 0 min 0,000 mm 0,0 UV-I 0 W/m 2,8 C 3,2 C 1,6 km/h (1 Bft) 100,00 %
14.12.2016 23:52 3,1 C 97 % 1027,5 hPa 0,0 l/m 1,4 km/h (1 Bft) NW 326 0 min 0,000 mm 0,0 UV-I 0 W/m 2,7 C 3,1 C 4,8 km/h (1 Bft) 100,00 %
14.12.2016 23:54 3,1 C 97 % 1027,6 hPa 0,0 l/m 2,3 km/h (1 Bft) N 355 0 min 0,000 mm 0,0 UV-I 0 W/m 2,7 C 3,1 C 8,0 km/h (2 Bft) 100,00 %
14.12.2016 23:56 3,1 C 97 % 1027,5 hPa 0,0 l/m 4,6 km/h (1 Bft) N-NO 29 0 min 0,000 mm 0,0 UV-I 0 W/m 2,7 C 3,1 C 8,0 km/h (2 Bft) 98,00 %
14.12.2016 23:58 3,1 C 97 % 1027,5 hPa 0,0 l/m 3,3 km/h (1 Bft) N-NO 22 0 min 0,000 mm 0,0 UV-I 0 W/m 2,7 C 3,1 C 6,4 km/h (2 Bft) 100,00 %
_ Min-Zeit 01:12 14:28 05:44 - 00:14 - - - - - - 00:00 18:12 00:14 18:38
Minimum _ 1,2 C 87 % 1024,8 hPa - 0,0 km/h (0 Bft) - - - - - - 0,4 C -0,9 C 0,0 km/h (0 Bft) 91,43 %
_ Max-Zeit 14:24 05:22 22:58 02:38 18:12 - - 13:54 13:00 00:00 12:14 14:24 14:24 18:12 00:26
Maximum _ 5,4 C 98 % 1027,6 hPa 0,2 l/m 13,7 km/h
W-SW (3 Bft)
- - 2 min 0,051 mm 0,0 UV-I 162 W/m 3,7 C 5,4 C 19,3 km/h
W (3 Bft)
100,00 %
Durchschnitt _ 3,0 C 95 % 1025,7 hPa #1,6 l/m 2,2 km/h (1 Bft) W - #14 min. #0,203 mm 0,0 UV-I 66 W/m 2,3 C 3,0 C 4,2 km/h (1 Bft) 98,66 %